[[{"header":{"parameterUnit":"m.s-1","parameterCategory":1,"la1":30.6,"la2":29.2853,"lo1":-89.7004,"lo2":-87.6739,"dy":0.0162,"dx":0.0183,"nx":112,"ny":82,"refTime":"2024-09-06T06:00:00:Z","depth":0,"parameterNumber":2,"parameterNumberName":"U-component_of_WINDS"},"data":[0.0,0.0,0.0,0.0,0.0,0.0,0.0,0.0,0.0,0.0,0.0,0.0,0.0,0.0,0.0,0.0,0.0,0.0,0.0,0.0,0.0,0.0,0.0,0.0,0.0,0.0,0.0,0.0,0.0,0.0,0.0,0.0,0.0,0.0,0.0,0.0,0.0,0.0,0.0,0.0,0.0,0.0,0.0,0.0,0.0,0.0,0.0,0.0,0.0,0.0,0.0,0.0,0.0,0.0,0.0,0.0,0.0,0.0,0.0,0.0,0.0,0.0,0.0,0.0,0.0,0.0,0.0,0.0,0.0,0.0,0.0,0.0,0.0,0.0,0.0,0.0,0.0,0.0,0.0,0.0,0.0,0.0,0.0,0.0,0.0,0.0,0.0,0.0,0.0,0.0,1.9639,2.1336,2.3166,2.4275,2.4275,2.3875,2.2612,2.0094,0.0,0.0,0.0,0.0,0.0,0.0,0.0,0.0,0.0,0.0,0.0,0.0,0.0,0.0,0.0,0.0,0.0,0.0,0.0,0.0,0.0,0.0,0.0,0.0,0.0,0.0,0.0,0.0,0.0,0.0,0.0,0.0,0.0,0.0,0.0,0.0,0.0,0.0,0.0,0.0,0.0,0.0,0.0,0.0,0.0,0.0,0.0,0.0,0.0,0.0,0.0,0.0,0.0,0.0,0.0,0.0,0.0,0.0,0.0,0.0,0.0,0.0,0.0,0.0,0.0,0.0,0.0,0.0,0.0,0.0,0.0,0.0,0.0,0.0,0.0,0.0,0.0,0.0,0.0,0.0,0.0,0.0,0.0,0.0,0.0,0.0,0.0,0.0,0.0,0.0,0.0,0.0,0.0,0.0,0.0,0.0,0.0,0.0,0.0,0.0,0.0,0.0,0.0,0.0,2.0378,2.3108,2.4088,2.4532,2.4532,2.3607,2.2331,2.0672,0.0,0.0,0.0,0.0,0.0,0.0,0.0,0.0,0.0,0.0,0.0,0.0,0.0,0.0,0.0,0.0,0.0,0.0,0.0,0.0,0.0,0.0,0.0,0.0,0.0,0.0,0.0,0.0,0.0,0.0,0.0,0.0,0.0,0.0,0.0,0.0,0.0,0.0,0.0,0.0,0.0,0.0,0.0,0.0,0.0,0.0,0.0,0.0,0.0,0.0,0.0,0.0,0.0,0.0,0.0,0.0,0.0,0.0,0.0,0.0,0.0,0.0,0.0,0.0,0.0,0.0,0.0,0.0,0.0,0.0,0.0,0.0,0.0,0.0,0.0,0.0,0.0,0.0,0.0,0.0,0.0,0.0,0.0,0.0,0.0,0.0,0.0,0.0,0.0,0.0,0.0,0.0,0.0,0.0,0.0,0.0,0.0,0.0,0.0,0.0,0.0,0.0,0.0,1.9977,2.1475,2.3754,2.4382,2.4532,2.4422,2.346,2.2131,2.0321,1.9225,0.0,0.0,0.0,0.0,0.0,0.0,0.0,0.0,0.0,0.0,0.0,0.0,0.0,0.0,0.0,0.0,0.0,0.0,0.0,0.0,0.0,0.0,0.0,0.0,0.0,0.0,0.0,0.0,0.0,0.0,0.0,0.0,0.0,0.0,0.0,0.0,0.0,0.0,0.0,0.0,0.0,0.0,0.0,0.0,0.0,0.0,0.0,0.0,0.0,0.0,0.0,0.0,0.0,0.0,0.0,0.0,0.0,0.0,0.0,0.0,0.0,0.0,0.0,0.0,0.0,0.0,0.0,0.0,0.0,0.0,0.0,0.0,0.0,0.0,0.0,0.0,0.0,0.0,0.0,0.0,0.0,0.0,0.0,0.0,0.0,0.0,0.0,0.0,0.0,0.0,0.0,0.0,0.0,0.0,0.0,0.0,0.0,0.0,0.0,0.0,0.0,0.0,2.1523,2.2612,2.4142,2.4466,2.4479,2.4222,2.3228,2.1796,1.992,1.8437,0.0,0.0,0.0,0.0,0.0,0.0,0.0,0.0,0.0,0.0,0.0,0.0,0.0,0.0,0.0,0.0,0.0,0.0,0.0,0.0,0.0,0.0,0.0,0.0,0.0,0.0,0.0,0.0,0.0,0.0,0.0,0.0,0.0,0.0,0.0,0.0,0.0,0.0,0.0,0.0,0.0,0.0,0.0,0.0,0.0,0.0,0.0,0.0,0.0,0.0,0.0,0.0,0.0,0.0,0.0,0.0,0.0,0.0,0.0,0.0,0.0,0.0,0.0,0.0,0.0,0.0,0.0,0.0,0.0,0.0,0.0,0.0,0.0,0.0,0.0,0.0,0.0,0.0,0.0,0.0,0.0,0.0,0.0,0.0,0.0,0.0,0.0,0.0,0.0,0.0,0.0,0.0,0.0,0.0,0.0,0.0,0.0,0.0,0.0,0.0,0.0,0.0,2.1958,2.3532,2.4466,2.4586,2.4479,2.4222,2.2666,2.1154,1.988,1.7662,0.0,0.0,0.0,0.0,0.0,0.0,0.0,0.0,0.0,0.0,0.0,0.0,0.0,0.0,0.0,0.0,0.0,0.0,0.0,0.0,0.0,0.0,0.0,0.0,0.0,0.0,0.0,0.0,0.0,0.0,0.0,0.0,0.0,0.0,0.0,0.0,0.0,0.0,0.0,0.0,0.0,0.0,0.0,0.0,0.0,0.0,0.0,0.0,0.0,0.0,0.0,0.0,0.0,0.0,0.0,0.0,0.0,0.0,0.0,0.0,0.0,0.0,0.0,0.0,0.0,0.0,0.0,0.0,0.0,0.0,0.0,0.0,0.0,0.0,0.0,0.0,0.0,0.0,0.0,0.0,0.0,0.0,0.0,0.0,0.0,0.0,0.0,0.0,0.0,0.0,0.0,0.0,0.0,0.0,0.0,0.0,0.0,0.0,0.0,0.0,0.0,0.0,2.155,2.3046,2.4452,2.4599,2.4412,2.3968,2.3,2.1596,1.9682,0.0,0.0,0.0,0.0,0.0,0.0,0.0,0.0,0.0,0.0,0.0,0.0,0.0,0.0,0.0,0.0,0.0,0.0,0.0,0.0,0.0,0.0,0.0,0.0,0.0,0.0,0.0,0.0,0.0,0.0,0.0,0.0,0.0,0.0,0.0,0.0,0.0,0.0,0.0,0.0,0.0,0.0,0.0,0.0,0.0,0.0,0.0,0.0,0.0,0.0,0.0,0.0,0.0,0.0,0.0,0.0,0.0,0.0,0.0,0.0,0.0,0.0,0.0,0.0,0.0,0.0,0.0,0.0,0.0,0.0,0.0,0.0,0.0,0.0,0.0,0.0,0.0,0.0,0.0,0.0,0.0,0.0,0.0,0.0,0.0,0.0,0.0,0.0,0.0,0.0,0.0,0.0,0.0,0.0,0.0,0.0,0.0,0.0,0.0,0.0,0.0,0.0,1.9943,2.159,2.3086,2.4452,2.4599,2.4359,2.3857,2.2987,2.1555,1.9388,0.0,0.0,0.0,0.0,0.0,0.0,0.0,0.0,0.0,0.0,0.0,0.0,0.0,0.0,0.0,0.0,0.0,0.0,0.0,0.0,0.0,0.0,0.0,0.0,0.0,0.0,0.0,0.0,0.0,0.0,0.0,0.0,0.0,0.0,0.0,0.0,0.0,0.0,0.0,0.0,0.0,0.0,0.0,0.0,0.0,0.0,0.0,0.0,0.0,0.0,0.0,0.0,0.0,0.0,0.0,0.0,0.0,0.0,0.0,0.0,0.0,0.0,0.0,0.0,0.0,0.0,0.0,0.0,0.0,0.0,0.0,0.0,0.0,0.0,0.0,0.0,0.0,0.0,0.0,0.0,0.0,0.0,0.0,0.0,0.0,0.0,0.0,0.0,0.0,0.0,0.0,0.0,0.0,0.0,0.0,0.0,0.0,0.0,0.0,0.0,0.0,0.0,2.0064,2.2298,2.3995,2.4532,2.4599,2.4359,2.3857,2.2452,2.0846,0.0,0.0,0.0,0.0,0.0,0.0,0.0,0.0,0.0,0.0,0.0,0.0,0.0,0.0,0.0,0.0,0.0,0.0,0.0,0.0,0.0,0.0,0.0,0.0,0.0,0.0,0.0,0.0,0.0,0.0,0.0,0.0,0.0,0.0,0.0,0.0,0.0,0.0,0.0,0.0,0.0,0.0,0.0,0.0,0.0,0.0,0.0,0.0,0.0,0.0,0.0,0.0,0.0,0.0,0.0,0.0,0.0,0.0,0.0,0.0,0.0,0.0,0.0,0.0,0.0,0.0,0.0,0.0,0.0,0.0,0.0,0.0,0.0,0.0,0.0,0.0,0.0,0.0,0.0,0.0,0.0,0.0,0.0,0.0,0.0,0.0,0.0,0.0,0.0,0.0,0.0,0.0,0.0,0.0,0.0,0.0,0.0,0.0,0.0,0.0,0.0,0.0,0.0,2.0374,2.2432,2.3995,2.4532,2.4599,2.4359,2.3857,2.3014,2.1582,1.9401,0.0,0.0,0.0,0.0,0.0,0.0,0.0,0.0,0.0,0.0,0.0,0.0,0.0,0.0,0.0,0.0,0.0,0.0,0.0,0.0,0.0,0.0,0.0,0.0,0.0,0.0,0.0,0.0,0.0,0.0,0.0,0.0,0.0,0.0,0.0,0.0,0.0,0.0,0.0,0.0,0.0,0.0,0.0,0.0,0.0,0.0,0.0,0.0,0.0,0.0,0.0,0.0,0.0,0.0,0.0,0.0,0.0,0.0,0.0,0.0,0.0,0.0,0.0,0.0,0.0,0.0,0.0,0.0,0.0,0.0,0.0,0.0,0.0,0.0,0.0,0.0,0.0,0.0,0.0,0.0,0.0,0.0,0.0,0.0,0.0,0.0,0.0,0.0,0.0,0.0,0.0,0.0,0.0,0.0,0.0,0.0,0.0,0.0,0.0,0.0,0.0,0.0,2.0512,2.2519,2.3995,2.4532,2.4599,2.4359,2.3857,2.3241,2.189,1.9548,0.0,0.0,0.0,0.0,0.0,0.0,0.0,0.0,0.0,0.0,0.0,0.0,0.0,0.0,0.0,0.0,0.0,0.0,0.0,0.0,0.0,0.0,0.0,0.0,0.0,0.0,0.0,0.0,0.0,0.0,0.0,0.0,0.0,0.0,0.0,0.0,0.0,0.0,0.0,0.0,0.0,0.0,0.0,0.0,0.0,0.0,0.0,0.0,0.0,0.0,0.0,0.0,0.0,0.0,0.0,0.0,0.0,0.0,0.0,0.0,0.0,0.0,0.0,0.0,0.0,0.0,0.0,0.0,0.0,0.0,0.0,0.0,0.0,0.0,0.0,0.0,0.0,0.0,0.0,0.0,0.0,0.0,0.0,0.0,0.0,0.0,0.0,0.0,0.0,0.0,0.0,0.0,0.0,0.0,0.0,0.0,0.0,0.0,0.0,0.0,0.0,0.0,2.0552,2.2532,2.3995,2.4532,2.4599,2.4372,2.3897,2.3295,2.197,1.9696,0.0,0.0,0.0,0.0,0.0,0.0,0.0,0.0,0.0,0.0,0.0,0.0,0.0,0.0,0.0,0.0,0.0,0.0,0.0,0.0,0.0,0.0,0.0,0.0,0.0,0.0,0.0,0.0,0.0,0.0,0.0,0.0,0.0,0.0,0.0,0.0,0.0,0.0,0.0,0.0,0.0,0.0,0.0,0.0,0.0,0.0,0.0,0.0,0.0,0.0,0.0,0.0,0.0,0.0,0.0,0.0,0.0,0.0,0.0,0.0,1.7298,1.638,0.0,0.0,0.0,0.0,0.0,0.0,0.0,0.0,0.0,0.0,0.0,0.0,0.0,0.0,0.0,0.0,0.0,0.0,0.0,0.0,0.0,0.0,0.0,0.0,0.0,0.0,0.0,0.0,0.0,0.0,0.0,0.0,0.0,0.0,0.0,0.0,0.0,0.0,0.0,0.0,2.0828,2.2632,2.3995,2.4532,2.4599,2.4452,2.4142,2.3567,2.2512,2.0842,1.9174,0.0,0.0,0.0,0.0,0.0,0.0,0.0,0.0,0.0,0.0,0.0,0.0,0.0,0.0,0.0,0.0,0.0,0.0,0.0,0.0,0.0,0.0,0.0,0.0,0.0,0.0,0.0,0.0,0.0,0.0,0.0,0.0,0.0,0.0,0.0,0.0,0.0,0.0,0.0,0.0,0.0,0.0,0.0,0.0,0.0,0.0,0.0,0.0,0.0,0.0,0.0,0.0,0.0,0.0,0.0,0.0,0.0,0.0,0.0,1.9011,1.8223,0.0,0.0,0.0,0.0,0.0,0.0,0.0,0.0,0.0,0.0,0.0,0.0,0.0,0.0,0.0,0.0,0.0,0.0,0.0,0.0,0.0,0.0,0.0,0.0,0.0,0.0,0.0,0.0,0.0,0.0,0.0,0.0,0.0,0.0,0.0,0.0,0.0,0.0,0.0,0.0,2.1136,2.2873,2.4142,2.4559,2.4479,2.4315,2.4022,2.3447,2.2592,2.1435,1.9933,0.0,0.0,0.0,0.0,0.0,0.0,0.0,0.0,0.0,0.0,0.0,0.0,0.0,0.0,0.0,0.0,0.0,0.0,0.0,0.0,0.0,0.0,0.0,0.0,0.0,0.0,0.0,0.0,0.0,0.0,0.0,0.0,0.0,0.0,0.0,0.0,0.0,0.0,0.0,0.0,0.0,0.0,0.0,0.0,0.0,0.0,0.0,0.0,0.0,0.0,0.0,0.0,0.0,2.1857,2.2058,2.2278,2.2278,2.2572,2.2939,2.1189,2.0672,2.0882,1.9506,0.0,0.0,0.0,0.0,0.0,0.0,0.0,0.0,0.0,0.0,0.0,0.0,0.0,0.0,0.0,0.0,0.0,0.0,0.0,0.0,0.0,0.0,2.0334,2.0334,2.11,2.1208,1.9,0.0,0.0,0.0,0.0,0.0,0.0,0.0,0.0,0.0,0.0,0.0,2.1475,2.314,2.4315,2.4572,2.4382,2.4102,2.391,2.3322,2.2639,2.1896,2.0753,1.976,0.0,0.0,0.0,0.0,0.0,0.0,0.0,0.0,0.0,0.0,0.0,0.0,0.0,0.0,0.0,0.0,0.0,0.0,0.0,0.0,0.0,0.0,0.0,0.0,0.0,0.0,0.0,0.0,0.0,0.0,0.0,0.0,1.8344,1.8319,0.0,0.0,0.0,0.0,0.0,0.0,0.0,0.0,0.0,0.0,0.0,0.0,0.0,2.1381,2.163,2.3287,2.3972,2.3808,2.486,2.5197,2.4983,2.4983,2.517,2.5503,2.493,0.0,2.2111,2.1162,0.0,0.0,0.0,0.0,0.0,0.0,0.0,0.0,0.0,0.0,0.0,0.0,0.0,0.0,0.0,0.0,0.0,0.0,0.0,0.0,0.0,0.0,2.2492,2.2492,2.2612,2.2626,2.2278,2.0401,1.8649,1.8223,1.7769,1.7207,0.0,0.0,0.0,0.0,0.0,0.0,2.181,2.326,2.4315,2.4572,2.4382,2.4195,2.4155,2.3607,2.31,2.2746,2.1863,2.1181,2.0775,1.9426,0.0,0.0,0.0,0.0,0.0,0.0,0.0,0.0,0.0,0.0,0.0,0.0,0.0,0.0,0.0,0.0,0.0,0.0,0.0,0.0,0.0,0.0,0.0,0.0,0.0,0.0,0.0,0.0,0.0,1.8423,1.9454,1.8332,1.8437,1.8184,0.0,0.0,0.0,0.0,0.0,0.0,0.0,0.0,0.0,2.2191,2.3108,2.371,2.3968,2.5224,2.576,2.5678,2.6399,2.6667,2.6493,2.6493,2.6613,2.672,2.66,2.5892,2.4719,2.3025,2.183,2.0935,0.0,0.0,0.0,0.0,2.0137,2.0338,2.0975,2.1203,2.1069,2.0227,0.0,0.0,0.0,0.0,0.0,0.0,0.0,1.7386,1.9071,2.0492,2.1807,2.328,2.2952,2.2249,2.2076,2.1128,2.0305,2.024,2.003,1.9401,1.7956,1.7956,0.0,0.0,0.0,2.1403,2.2592,2.3705,2.4452,2.4586,2.4382,2.4142,2.3968,2.3567,2.3193,2.292,2.2372,2.1977,2.1857,2.0762,1.9746,0.0,0.0,0.0,0.0,0.0,0.0,0.0,0.0,0.0,0.0,0.0,0.0,0.0,0.0,0.0,0.0,0.0,0.0,0.0,0.0,0.0,0.0,0.0,0.0,0.0,0.0,0.0,0.0,1.9013,2.0174,1.872,1.9519,1.9562,0.0,0.0,0.0,0.0,0.0,0.0,2.1844,2.2525,2.3367,2.4446,2.5262,2.5772,2.6066,2.68,2.7161,2.7161,2.7429,2.7536,2.7536,2.7536,2.7536,2.7523,2.7456,2.7255,2.6881,2.4756,2.3447,2.2719,2.185,2.1336,2.1216,2.1917,2.2198,2.2398,2.3247,2.3519,2.3275,2.1722,1.9681,1.781,1.7823,0.0,0.0,0.0,0.0,1.5827,1.8089,1.9247,2.0308,2.2362,2.1942,2.102,2.083,2.0785,2.0913,2.134,2.1766,2.1502,1.9786,1.9188,0.0,1.9266,1.9928,2.0726,2.172,2.2579,2.3079,2.3079,2.2791,2.2516,2.2312,2.2438,2.2436,2.2207,2.2408,2.2539,2.2539,2.183,2.1064,2.033,0.0,0.0,0.0,0.0,0.0,0.0,0.0,0.0,0.0,0.0,0.0,0.0,0.0,0.0,0.0,0.0,0.0,0.0,0.0,0.0,0.0,0.0,0.0,0.0,0.0,0.0,0.0,0.0,0.0,2.013,2.1358,0.0,0.0,0.0,0.0,2.1368,2.2224,2.3121,2.3995,2.4863,2.5625,2.6239,2.6881,2.7336,2.7589,2.7951,2.8125,2.8125,2.8138,2.8138,2.8138,2.8138,2.8138,2.8125,2.7802,2.7669,2.7535,2.6026,2.5211,2.4874,2.3991,2.3643,2.3629,2.3683,2.3834,2.4075,2.4142,2.4155,2.3855,2.2129,1.928,1.6446,1.6136,1.5639,0.0,0.0,1.6099,1.6846,1.7579,1.8114,1.8592,1.8978,1.9125,1.9131,1.9111,1.9111,1.9478,2.0686,2.2185,2.2985,2.2305,0.0,1.9002,1.9026,1.7889,1.7263,1.7907,1.8512,1.8912,1.8912,1.8594,1.8369,1.8207,1.958,2.0368,2.0248,2.1893,2.288,2.288,2.2525,2.1817,2.0712,1.9776,0.0,0.0,0.0,0.0,0.0,0.0,0.0,0.0,0.0,0.0,0.0,0.0,0.0,0.0,0.0,0.0,0.0,0.0,0.0,0.0,0.0,0.0,0.0,0.0,0.0,0.0,0.0,0.0,2.1911,2.306,0.0,2.1943,2.2345,2.2867,2.3233,2.4075,2.4957,2.5838,2.6373,2.6907,2.7536,2.7764,2.7924,2.8031,2.8138,2.8179,2.8179,2.8179,2.8179,2.8179,2.8179,2.8179,2.8179,2.8072,2.7165,2.5699,2.4964,2.528,2.5989,2.398,2.3204,2.3038,2.1429,2.1029,2.1263,2.0939,2.0977,2.0797,1.8587,1.7657,1.7112,1.5804,1.5202,1.5017,1.5306,1.4657,1.4319,1.6139,1.6673,1.7123,1.8592,1.8021,1.7186,1.7186,1.7324,1.7583,1.8038,1.9284,2.0025,1.9228,1.851,1.798,1.7753,1.7516,1.758,1.8205,1.8471,1.861,1.861,1.8501,1.8323,1.8064,1.8461,1.8599,1.8261,1.8783,1.9073,1.897,1.8845,1.8528,1.7952,1.7019,1.6292,0.0,0.0,0.0,0.0,0.0,0.0,0.0,0.0,0.0,0.0,0.0,0.0,0.0,0.0,0.0,0.0,0.0,0.0,0.0,0.0,0.0,0.0,0.0,0.0,0.0,2.1871,2.3166,2.3201,2.4476,2.4839,2.3581,2.4275,2.4917,2.5211,2.5865,2.6547,2.7228,2.7496,2.7777,2.8179,2.8179,2.8179,2.8179,2.8179,2.8179,2.8179,2.8179,2.8179,2.8179,2.8179,2.7757,2.7025,2.7025,2.5671,2.3501,2.3302,2.3885,2.4717,2.2783,2.2037,2.1812,2.0191,1.9713,1.9864,1.9494,1.8965,1.8168,1.6524,1.6069,1.5911,1.4664,1.4242,1.4195,1.4353,1.3503,1.2926,1.456,1.4955,1.5296,1.6713,1.6133,1.5268,1.5268,1.5395,1.5514,1.5514,1.7333,1.8706,1.8126,1.7462,1.6889,1.6656,1.6266,1.6119,1.6505,1.6523,1.6523,1.6523,1.6523,1.6424,1.6117,1.6535,1.6632,1.6222,1.6649,1.6902,1.6817,1.7281,1.7399,1.7119,1.6128,1.5385,1.4883,0.0,0.0,0.0,0.0,0.0,0.0,0.0,0.0,0.0,0.0,0.0,0.0,0.0,0.0,0.0,0.0,0.0,0.0,0.0,0.0,0.0,0.0,0.0,2.1703,2.3394,2.4452,2.3977,2.5651,2.6267,2.4853,2.5987,2.6987,2.7309,2.7549,2.7843,2.8165,2.8179,2.8179,2.8179,2.8192,2.8192,2.8179,2.8192,2.8192,2.8179,2.8179,2.8136,2.8094,2.8094,2.68,2.4605,2.4605,2.3255,2.1091,2.1091,2.1048,2.0922,2.0408,2.0207,2.0197,2.0113,2.0103,2.0064,1.9929,1.8318,1.6321,1.6313,1.4683,1.2706,1.2706,1.2699,1.2699,1.2706,1.2847,1.3003,1.3009,1.3111,1.3214,1.322,1.3295,1.3403,1.3403,1.3403,1.3403,1.3403,1.6585,1.9324,1.9324,1.7411,1.5881,1.5744,1.3975,0.0,1.2522,1.2501,1.2501,1.2501,1.2501,1.2386,1.2132,1.3631,1.4487,1.4135,1.5704,1.6638,1.6638,1.7995,1.8576,1.8267,1.7234,1.5739,1.3844,0.0,0.0,0.0,0.0,0.0,0.0,0.0,0.0,0.0,0.0,0.0,0.0,0.0,0.0,0.0,0.0,0.0,0.0,0.0,0.0,0.0,2.2565,2.3808,2.3514,2.4877,2.6012,2.6305,2.7215,2.767,2.7255,2.759,2.7857,2.7938,2.8018,2.8098,2.8179,2.8179,2.8179,2.8179,2.8406,2.8419,2.8192,2.8406,2.8406,2.8179,2.8179,2.7321,2.5683,2.5683,2.438,2.217,2.217,2.0875,1.8714,1.8714,1.772,1.6334,1.7914,1.8511,1.8277,1.6486,1.5716,1.5585,1.5425,1.4934,1.4353,1.4271,1.369,1.3051,1.3051,1.2983,1.2955,1.3024,1.305,1.305,1.3227,1.3268,1.32,1.3308,1.337,1.3403,1.3403,1.3403,1.3403,1.3403,1.4298,1.5082,1.5082,1.4456,1.3938,1.3786,1.3156,1.2638,1.2522,1.2501,1.2501,1.2501,1.2501,1.2427,1.2244,1.246,1.2489,1.2205,1.2403,1.2515,1.2515,1.2898,1.3085,1.3003,1.3555,1.3494,0.0,0.0,0.0,0.0,0.0,0.0,0.0,0.0,0.0,0.0,0.0,0.0,0.0,0.0,0.0,0.0,0.0,0.0,0.0,0.0,0.0,0.0,2.4369,2.5546,2.5651,2.64,2.7108,2.7617,2.7978,2.8179,2.8179,2.8179,2.8179,2.8179,2.8179,2.8245,2.8379,2.8379,2.8433,2.8511,2.8698,2.8698,2.8524,2.768,2.7129,2.688,2.5842,2.4613,2.3212,2.3212,2.1954,1.9792,1.9792,1.8453,1.6334,1.6334,1.5513,1.4431,0.0,0.0,0.0,0.0,1.4068,1.3926,1.3844,1.3736,1.3572,1.3526,1.3349,1.3214,1.3214,1.3152,1.3105,1.3193,1.3159,1.3186,1.3356,1.3336,1.3288,1.3376,1.3403,1.3403,1.3403,1.3403,1.3403,1.3403,1.3403,0.0,1.3403,1.3329,1.3261,1.3111,1.2922,1.2773,1.2617,1.2542,1.2501,1.2501,1.2501,1.244,1.2305,1.2006,0.0,0.0,0.0,1.1274,1.188,1.1973,0.0,0.0,0.0,0.0,0.0,0.0,0.0,0.0,1.3772,1.4268,0.0,0.0,0.0,0.0,0.0,0.0,0.0,0.0,0.0,0.0,0.0,0.0,0.0,0.0,0.0,0.0,2.5973,2.7108,2.7669,2.7749,2.7884,2.8152,2.8179,2.8179,2.8179,2.8179,2.8179,2.8179,2.8219,2.8225,2.8192,2.8188,0.0,0.0,0.0,2.8216,2.819,2.6018,2.4877,2.4667,2.2473,2.1211,2.0828,2.0828,1.9603,1.7413,1.7413,1.6202,1.4299,1.4299,1.4299,1.4299,1.4299,1.4299,1.4299,1.4299,1.4211,1.4139,1.4119,0.0,0.0,1.3599,1.3444,1.322,1.3248,1.3241,1.3241,1.3241,1.3295,1.3403,1.3403,1.3403,1.3403,1.3403,1.3403,1.3403,1.3424,1.341,1.3403,1.3424,1.341,1.3403,1.3403,1.3403,1.3349,1.3234,1.3105,1.2969,1.2779,1.2637,1.2549,1.2528,1.2528,0.0,1.2305,1.2026,1.1759,1.1617,1.1402,1.1849,1.312,1.333,1.3392,1.3386,1.3713,1.3329,1.2173,1.2569,1.276,1.2846,1.4491,1.509,0.0,0.0,0.0,0.0,0.0,0.0,0.0,0.0,0.0,0.0,0.0,0.0,0.0,0.0,0.0,2.5798,2.6881,2.7655,2.8045,2.8098,2.8125,2.8179,2.8179,2.8179,2.8179,2.8179,2.8179,2.8179,2.8419,2.7654,2.5716,2.5802,2.5055,2.3167,2.3304,2.3315,2.3133,2.2867,2.2612,2.235,2.1862,0.0,1.8602,1.8602,1.7298,1.4992,1.4992,1.4734,1.4299,1.4299,1.4299,1.4299,1.4299,1.4299,1.4299,1.4299,1.4278,1.4238,1.4159,1.4078,1.3946,1.3709,1.3545,1.3519,1.3397,1.3356,0.0,1.3356,1.3376,1.3403,1.3403,1.3403,1.3403,1.3403,1.3403,1.3437,1.3559,1.3492,1.3437,1.3559,1.3485,1.3403,1.3403,1.3403,1.3349,1.3234,1.3193,1.3118,1.2975,1.2928,1.2827,1.2698,1.2645,1.2576,1.2311,1.2121,1.1952,1.1759,1.185,1.2054,1.2312,1.2663,1.2768,1.2552,1.2982,1.2977,1.2564,1.2929,1.3214,1.3451,1.3679,1.3777,0.0,0.0,0.0,0.0,0.0,0.0,0.0,0.0,0.0,0.0,0.0,2.2004,2.3474,0.0,2.5678,2.6854,2.7576,2.8018,2.8165,2.8179,2.8179,2.8179,2.8179,2.8179,2.8179,2.8179,2.7725,2.6637,2.6659,2.5793,2.3599,2.3641,2.3223,2.2121,2.2232,2.2242,2.2086,2.1048,2.0363,2.0123,1.891,1.7599,1.6233,1.6233,1.5535,1.4299,1.4299,1.4299,1.4299,1.4299,1.4299,1.4299,1.4299,1.4299,1.4299,1.4299,1.4299,1.4292,1.4211,1.418,1.4091,1.3899,1.3749,1.3572,1.3539,1.3464,1.3403,1.3403,1.3403,1.3403,1.3403,1.3458,1.3512,1.3512,1.3566,1.3578,1.3585,1.3566,1.3512,1.3512,1.3451,1.3403,1.3403,1.3403,1.3376,1.3302,1.322,1.3186,1.3118,1.3043,1.2969,1.2854,1.2779,1.2705,1.263,1.2488,1.2332,1.2176,1.2237,1.2284,1.2284,1.2644,1.2739,1.2515,1.303,1.322,1.3064,1.3437,1.3702,1.3851,1.3851,1.381,0.0,0.0,0.0,0.0,0.0,0.0,0.0,2.0214,2.0739,2.2439,2.3255,2.4111,2.5504,2.6253,2.6773,2.7061,2.7333,2.7363,2.6885,2.6842,2.6842,2.6842,2.7236,2.7532,2.7532,2.7148,2.6142,2.4338,2.431,2.3478,2.1513,2.1426,2.136,2.1083,2.1083,2.1083,2.1083,1.9149,1.8109,1.7924,1.5971,1.4855,1.4557,1.4557,1.4462,1.4299,1.4299,1.4299,1.4299,1.4299,1.4299,1.4299,1.4299,1.4299,1.4299,1.4299,1.4299,1.4299,1.4299,1.4217,1.4109,1.4125,1.3912,1.366,1.3605,1.3504,1.3444,1.3444,1.3424,1.341,1.3437,1.3539,1.3578,1.3551,1.3653,1.3727,1.3612,1.3585,1.3551,1.3471,1.3444,1.3437,1.3403,1.3403,1.3403,1.3403,1.3295,1.3254,1.3254,1.3159,1.3077,1.3043,1.2888,1.2854,1.2989,1.2847,1.2718,1.2596,1.2617,1.2644,1.2671,1.2942,1.3044,1.2909,1.3409,1.3654,1.3532,1.3926,1.4159,1.4122,1.4245,1.4231,1.8036,1.8652,1.9401,2.0454,2.0374,2.0837,0.0,2.3995,2.3736,2.5235,2.5972,2.64,2.66,2.7161,2.6991,2.5319,2.5063,2.4337,2.2299,2.1998,2.1998,2.1998,2.3812,2.5075,2.5075,2.3325,2.206,2.1818,2.2176,2.1339,1.8949,1.9113,1.825,1.6112,1.6018,1.6018,1.6018,1.5737,1.5589,1.5575,1.5294,1.5004,1.4667,1.4667,1.4563,1.4299,1.4299,1.4299,1.4299,1.4299,1.4299,1.4299,1.4299,1.4299,1.4299,1.4299,1.4299,1.4299,1.4299,1.4292,1.4251,1.4159,1.4048,1.3973,1.3709,1.3572,1.3558,1.3558,1.3505,1.3431,1.3566,1.3572,1.3551,1.3458,1.3504,1.3605,1.3592,1.3585,1.3585,1.3565,1.3558,1.3559,1.3424,1.3403,1.3403,1.3403,1.339,1.3376,1.3376,1.3363,1.3302,1.3207,1.3173,1.3118,1.3009,1.2982,1.2969,1.2955,1.3071,1.32,1.3295,1.3464,1.3565,1.3673,1.3919,1.4057,1.4044,1.4183,1.4272,1.4278,1.4292,1.4292,2.0003,2.0605,2.1136,2.2151,2.2726,2.3487,2.5144,2.5264,2.5396,2.6533,2.7041,2.7388,2.7603,2.6678,2.5676,2.4838,2.3555,2.2299,2.1351,2.1221,2.1171,2.1082,2.0839,2.1221,2.2525,2.1903,2.0866,1.9624,1.9789,1.8955,1.664,1.6668,1.6292,1.5228,1.5181,1.5181,1.5181,1.5181,1.5181,1.5181,1.5181,1.5072,1.4875,1.4875,1.4713,1.4421,1.4333,1.4299,1.4299,1.4299,1.4299,1.4299,1.4299,1.4299,1.4299,1.4299,1.4299,1.4299,1.4299,1.4299,1.4292,1.4224,1.4143,1.4048,1.3926,1.3824,1.3707,1.3707,1.3666,1.3612,1.3592,1.3756,1.3851,1.3653,1.3802,1.3994,1.3905,1.3885,1.3838,1.3619,1.3653,1.3632,1.3444,1.3471,1.3505,1.3417,1.3403,1.3403,1.3403,1.3403,1.3342,1.3227,1.3254,1.3247,1.3139,1.3207,1.3214,1.3214,1.3275,1.3376,1.3526,1.3632,1.3741,1.3795,1.4082,1.4163,1.4119,1.4224,1.4299,1.4299,1.4299,1.4299,2.1074,2.185,2.2565,2.3425,2.4569,2.5378,2.5114,2.5294,2.5534,2.5595,2.5758,2.5999,2.6241,2.4892,2.3512,2.2912,2.1351,2.0053,1.9411,1.9278,1.9229,1.9115,1.7681,1.7368,1.9059,1.9383,1.8875,1.7328,1.7367,1.6811,1.5268,1.5181,1.5181,1.5181,1.5181,1.5181,1.5181,1.5181,1.5181,1.5181,1.5181,1.5106,1.5017,1.4882,1.4699,1.4448,1.4346,1.4299,1.4299,1.4299,1.4299,1.4299,1.4299,1.4299,1.4299,1.4299,1.4299,1.4299,1.4299,1.4299,1.4299,1.4299,1.4224,1.4173,1.4125,1.3994,1.3862,1.3862,1.3829,1.3781,1.377,1.3912,1.4034,1.3835,1.4041,1.4197,1.4041,1.4041,1.3994,1.3693,1.3761,1.3781,1.3566,1.3538,1.3551,1.3478,1.3424,1.3403,1.3403,1.3403,1.3356,1.3288,1.3336,1.3356,1.3247,1.3376,1.3464,1.3464,1.3498,1.3593,1.3743,1.3851,1.3883,1.3923,1.419,1.4245,1.418,1.4245,1.4299,1.4299,1.4299,1.4299,2.0793,2.1964,2.3465,2.4346,2.5478,2.5937,2.4256,2.4068,2.3695,2.1795,2.1373,2.1384,2.1394,2.1351,2.0572,1.8366,1.7929,1.7115,1.4822,1.4389,1.4293,1.4329,1.4069,1.4041,1.4279,1.4561,1.475,1.4817,1.4974,1.5124,1.5221,1.5181,1.5181,1.5181,1.5181,1.5181,1.5181,1.5181,1.5181,1.5181,1.5181,1.5106,1.501,1.4658,1.4441,1.4306,1.4299,1.4299,1.4299,1.4299,1.4299,1.4299,1.4299,1.4299,1.4299,1.4299,1.4299,1.4299,1.4299,1.4299,1.4299,1.4299,1.4299,1.4265,1.4159,1.4112,1.4105,1.4105,1.3953,1.3829,1.4021,1.4105,1.4034,1.3835,1.3966,1.4034,1.3835,1.3966,1.4027,1.3822,1.396,1.4014,1.3815,1.3673,1.3585,1.3578,1.3498,1.3403,1.3403,1.3403,1.3397,1.3397,1.3397,1.3397,1.3397,1.3532,1.3578,1.3578,1.3707,1.3899,1.4098,1.4105,1.4136,1.4285,1.4292,1.4299,1.4292,1.4299,1.4299,1.4299,1.4299,1.4299,2.2465,2.2456,2.2407,2.3546,2.3225,2.2571,2.2171,2.2129,2.199,2.1223,2.1015,2.0905,2.0804,1.9516,1.8255,1.7588,1.6258,1.5089,1.4418,1.4258,1.415,1.3939,1.4055,1.4089,1.3933,1.419,1.4434,1.4577,1.4828,1.5037,1.5038,1.5133,1.5181,1.5181,1.5181,1.5181,1.5181,1.5181,1.5181,1.5181,1.5181,1.516,1.5153,1.4909,1.4733,1.4539,1.4482,1.4387,1.4299,1.4299,1.4299,1.4299,1.4299,1.4299,1.4299,1.4299,1.4299,1.4299,1.4299,1.4299,1.4299,1.4299,1.4299,1.4292,1.4238,1.4224,1.4224,1.4224,1.4183,1.4136,1.4125,1.4193,1.4183,1.4027,1.4109,1.4211,1.4156,1.419,1.4177,1.4021,1.4116,1.4143,1.3842,1.3885,1.3885,1.3741,1.3559,1.3403,1.3403,1.3403,1.3403,1.3403,1.3492,1.3511,1.3511,1.3646,1.3727,1.3727,1.3774,1.3912,1.4105,1.4119,1.4143,1.4299,1.4299,1.4299,1.4299,1.4299,1.4299,1.4299,1.4299,1.4299,2.2563,2.1855,2.0972,2.217,2.1705,2.0792,2.0154,1.9909,1.9604,1.8566,1.8211,1.8023,1.7792,1.6519,1.555,1.5874,1.4734,1.3939,1.4258,1.4251,1.4143,1.3946,1.4048,1.4082,1.3939,1.4102,1.4299,1.4496,1.4746,1.4909,1.5017,1.5153,1.5181,1.5181,1.5181,1.5181,1.5181,1.5181,1.5181,1.5181,1.5181,1.5153,1.5153,1.5057,1.4889,1.4687,1.4577,1.4462,1.4373,1.4319,1.4299,1.4299,1.4299,1.4299,1.4299,1.4299,1.4299,1.4299,1.4299,1.4299,1.4299,1.4299,1.4299,1.4299,1.4299,1.4299,1.4299,1.4299,1.4299,1.4278,1.4177,1.4224,1.4278,1.4177,1.4231,1.4299,1.4299,1.4299,1.4272,1.417,1.4231,1.4238,1.4041,1.4041,1.4021,1.3822,1.3639,1.3559,1.3559,1.3512,1.3485,1.3485,1.3519,1.3566,1.3585,1.3714,1.3822,1.3919,1.393,1.4048,1.415,1.415,1.4197,1.4299,1.4299,1.4299,1.4299,1.4299,1.4299,1.4299,1.4299,1.4299,2.1083,2.0231,1.9199,2.0358,2.0759,2.025,1.8078,1.7447,1.6564,1.4049,1.3322,1.3017,1.2679,1.2569,1.2684,1.3268,1.3397,1.3627,1.4217,1.4183,1.4132,1.4125,1.3966,1.3939,1.4082,1.4146,1.4224,1.4502,1.4613,1.4808,1.501,1.5153,1.5181,1.5181,1.5181,1.5181,1.5181,1.5181,1.5181,1.5181,1.5181,1.5113,1.503,1.503,1.4896,1.4701,1.459,1.4516,1.4502,1.436,1.4299,1.4299,1.4299,1.4299,1.4299,1.4299,1.4299,1.4299,1.4299,1.4299,1.4299,1.4299,1.4299,1.4299,1.4299,1.4299,1.4299,1.4299,1.4299,1.4299,1.4299,1.4299,1.4299,1.4299,1.4299,1.4299,1.4299,1.4299,1.4299,1.4299,1.4299,1.4299,1.4299,1.4089,1.3854,1.367,1.3558,1.3551,1.3759,1.3588,1.3416,1.3416,1.3206,1.3103,1.3241,1.3386,1.3574,1.3894,1.4041,1.4166,1.4299,1.4299,1.4299,1.4299,1.4299,1.4299,1.4299,1.4299,1.4299,1.4299,1.4299,1.4299,1.9746,1.89,1.7867,1.8424,1.7237,1.5726,1.5002,1.454,1.4013,1.2994,1.2461,1.2081,1.1789,1.2067,1.2467,1.284,1.3328,1.3822,1.4245,1.436,1.436,1.4251,1.4401,1.4437,1.4407,1.4502,1.4604,1.4633,1.4674,1.4808,1.501,1.5153,1.5181,1.5181,1.5181,1.5181,1.5181,1.5181,1.5181,1.5181,1.5181,1.516,1.5126,1.5126,1.5052,1.4903,1.4746,1.4572,1.4502,1.436,1.4299,1.4299,1.4299,1.4299,1.4299,1.4299,1.4299,1.4299,1.4299,1.4299,1.4299,1.4299,1.4299,1.4299,1.4299,1.4299,1.4299,1.4299,1.4299,1.4299,1.4299,1.4299,1.4299,1.4299,1.4299,1.4299,1.4299,1.4299,1.4299,1.4299,1.4299,1.4299,1.4299,1.2788,1.1555,1.1522,0.9965,1.0039,1.335,1.2253,1.1154,1.1154,0.9578,0.8586,0.8612,0.8721,0.9577,1.1472,1.1594,1.2414,1.421,1.4299,1.4299,1.4299,1.4299,1.4299,1.4299,1.4299,1.4299,1.4299,1.4299,1.4299,1.8559,1.7307,1.6043,1.6223,1.5119,1.3899,1.3614,1.32,1.2691,1.2047,1.1667,1.1279,1.0846,1.1294,1.18,1.2226,1.2963,1.3627,1.4129,1.438,1.4482,1.4401,1.4552,1.466,1.4618,1.4647,1.4721,1.4835,1.4841,1.4875,1.501,1.5153,1.5181,1.5181,1.5181,1.5181,1.5181,1.5181,1.5181,1.5181,1.5181,1.5181,1.5181,1.5181,1.4538,1.3409,1.323,1.2494,1.1371,1.1209,1.1117,1.1117,1.1117,1.1117,1.1117,1.1117,1.1117,1.1117,1.1117,1.1117,1.1477,1.3628,1.4299,1.4299,1.4299,1.4299,1.4299,1.4299,1.4299,1.4299,1.4299,1.4299,1.4299,1.4299,1.4299,1.4299,1.4299,1.4299,1.4299,1.4299,1.4299,1.3938,1.2907,1.161,1.0357,0.9286,0.7951,0.8006,1.0539,0.9649,0.8812,0.8815,0.7618,0.6844,0.6875,0.6986,0.76,0.9015,0.9108,0.9735,1.1072,1.1117,1.1117,1.1117,1.1117,1.1117,1.1117,1.1117,1.1117,1.1117,1.1117,1.1117,1.7246,1.5621,1.4292,1.4278,1.4007,1.3592,1.3186,1.2657,1.2033,1.1247,1.088,1.0556,1.0049,1.0435,1.109,1.1719,1.2494,1.3288,1.4044,1.436,1.4543,1.4543,1.4647,1.4755,1.4755,1.4755,1.4855,1.4991,1.5018,1.5064,1.5051,1.516,1.5181,1.5181,1.5181,1.5181,1.5181,1.5181,1.5181,1.5181,1.4852,1.4704,1.4657,1.4356,1.3005,1.0887,1.0758,0.9421,0.7391,0.718,0.7102,0.7102,0.7102,0.7102,0.7102,0.7102,0.7102,0.7102,0.7102,0.7102,0.777,1.1971,1.3356,1.3356,1.3356,1.3356,1.3356,1.3356,1.3356,1.3356,1.3356,1.3356,1.3356,1.3356,1.3356,1.3356,1.3356,1.3356,1.3356,1.3356,1.3356,1.2686,1.0584,0.9957,0.9064,0.6968,0.6344,0.6163,0.6154,0.6317,0.648,0.6462,0.6072,0.5839,0.598,0.6001,0.6151,0.6608,0.6656,0.679,0.7102,0.7102,0.7102,0.7102,0.7102,0.7102,0.7102,0.7102,0.7102,0.7102,0.7102,0.7102,1.4813,1.4588,1.4272,1.4143,1.3737,1.3173,1.2718,1.1796,1.0914,1.0514,1.0019,0.9659,0.968,1.0245,1.1036,1.1884,1.269,1.3397,1.4156,1.4516,1.4654,1.4654,1.4943,1.5106,1.5106,1.5106,1.512,1.5147,1.5262,1.5276,1.5153,1.5167,1.5181,1.5181,1.5181,1.5181,1.5181,1.5181,1.5181,1.5181,1.3093,1.2051,1.1998,0.988,0.866,0.8265,0.8118,0.782,0.7391,0.718,0.7102,0.7102,0.7102,0.7102,0.7102,0.7102,0.7102,0.7102,0.7102,0.7102,0.7235,0.8085,0.8352,0.8352,0.8352,0.8352,0.8352,0.8352,0.8352,0.8352,0.8352,0.8352,0.8352,0.8352,0.8352,0.8352,0.8352,0.8352,0.8352,0.8352,0.8352,0.8219,0.7814,0.6124,0.4695,0.4251,0.2507,0.1252,0.124,0.2951,0.4168,0.4159,0.2367,0.1186,0.1188,0.12,0.2057,0.4072,0.4206,0.5097,0.7012,0.7102,0.7102,0.7102,0.7102,0.7102,0.7102,0.7102,0.7102,0.7102,0.7102,0.7102,1.4539,1.4299,1.4265,1.4109,1.3601,1.2921,1.2196,1.124,1.0337,0.9832,0.9492,0.9288,0.923,0.9839,1.0529,1.1186,1.1877,1.2678,1.3587,1.4034,1.4342,1.466,1.5004,1.5215,1.5296,1.5303,1.5303,1.5303,1.5445,1.5432,1.5194,1.5181,1.5181,1.5181,1.5181,1.4563,1.3234,1.3234,1.2569,1.1239,1.0007,0.9445,0.9393,0.8173,0.6858,0.5616,0.5576,0.4756,0.3562,0.3454,0.3401,0.3401,0.3401,0.3401,0.3401,0.3401,0.3401,0.3401,0.3401,0.3401,0.3401,0.3401,0.5097,0.7102,0.7102,0.7102,0.7102,0.7102,0.7102,0.7102,0.7102,0.7102,0.7102,0.7102,0.7102,0.7102,0.7102,0.7102,0.7102,0.7102,0.7102,0.67,0.5499,0.434,0.3179,0.1926,0.0762,0.0,0.0,0.1024,0.1727,0.1708,0.0704,0.0,0.0,0.0,0.0494,0.1658,0.1748,0.224,0.3356,0.3401,0.3401,0.3401,0.3401,0.3401,0.3401,0.3401,0.3401,0.3401,0.3401,0.3412,1.4687,1.4278,1.4258,1.4068,1.3479,1.2676,1.1769,1.0799,0.9934,0.9274,0.9056,0.8988,0.8912,0.9413,0.9988,1.0507,1.1145,1.1959,1.3064,1.3607,1.4058,1.4626,1.5004,1.5242,1.5398,1.5411,1.5425,1.5459,1.5031,1.4902,1.5289,1.4723,1.4414,1.4414,1.3864,1.2616,1.063,1.0578,0.9586,0.7595,0.7024,0.6787,0.6787,0.6204,0.489,0.3002,0.297,0.1855,0.0,0.0,0.0,0.0,0.0,0.0,0.0,0.0,0.0,0.0,0.0,0.0,0.0,0.0,0.2509,0.5588,0.5588,0.5588,0.5588,0.5588,0.5588,0.5588,0.5588,0.5588,0.5588,0.5588,0.5588,0.5588,0.5588,0.5588,0.5588,0.5588,0.5588,0.5008,0.3134,0.2821,0.2195,0.0269,0.0,0.0,0.0,0.0,0.0,0.0,0.0,0.0,0.0,0.0,0.0,0.0,0.0,0.0,0.0,0.0,0.0,0.0,0.0,0.0,0.0,0.0,0.0,0.0,0.0,0.0,1.4135,1.4197,1.4231,1.3889,1.32,1.2345,1.1586,1.0399,0.9367,0.9,0.8635,0.8498,0.8838,0.9103,0.9635,1.0691,1.1192,1.187,1.3193,1.3763,1.4224,1.464,1.5004,1.5242,1.5398,1.5411,1.5466,1.556,1.3322,1.3026,1.545,1.3231,1.1915,1.1915,0.9578,0.8211,0.7974,0.7927,0.7832,0.7595,0.5273,0.4136,0.4086,0.1744,0.0561,0.037,0.0366,0.0227,0.0,0.0,0.0,0.0,0.0,0.0,0.0,0.0,0.0,0.0,0.0,0.0,0.0,0.0,0.0314,0.0673,0.0673,0.0673,0.0673,0.0673,0.0673,0.0673,0.0673,0.0673,0.0673,0.0673,0.0673,0.0673,0.0673,0.0673,0.0673,0.0673,0.0673,0.0583,0.0359,0.0314,0.0269,0.0045,0.0,0.0,0.0,0.0,0.0,0.0,0.0,0.0,0.0,0.0,0.0,0.0,0.0,0.0,0.0,0.0,0.0,0.0,0.0,0.0,0.0,0.0,0.0,0.0,0.0,0.0,1.3715,1.3912,1.391,1.3648,1.2969,1.2155,1.1279,1.0222,0.9293,0.8973,0.8581,0.8437,0.8831,0.8906,0.9191,1.0089,1.0339,1.0887,1.2149,1.2718,1.3295,1.4058,1.4543,1.4943,1.5371,1.5493,1.4958,1.3592,1.0916,0.98,1.0981,0.9854,0.9168,0.921,0.8178,0.6885,0.532,0.532,0.4563,0.2998,0.2,0.1524,0.1476,0.0469,0.0,0.0,0.0,0.0,0.0,0.0,0.0,0.0,0.0,0.0,0.0,0.0,0.0,0.0,0.0,0.0,0.0,0.0,0.0,0.0,0.0,0.0,0.0,0.0,0.0,0.0,0.0,0.0,0.0,0.0,0.0,0.0,0.0,0.0,0.0,0.0,0.0,0.0,0.0,0.0,0.0,0.0,0.0,0.0,0.0,0.0,0.0,0.0,0.0,0.0,0.0,0.0,0.0,0.0,0.0,0.0,0.0,0.0,0.0,0.0,0.0,0.0,0.0,0.0,0.0,0.0,0.0,0.0,1.32,1.349,1.3641,1.3342,1.2739,1.1986,1.1049,1.01,0.9286,0.8912,0.8554,0.8417,0.877,0.8757,0.894,0.9616,0.9798,1.0278,1.1475,1.2067,1.2705,1.3619,1.4136,1.4281,1.4109,1.3614,1.2689,1.103,0.8268,0.6733,0.6815,0.5884,0.5718,0.6487,0.5758,0.4468,0.2713,0.2665,0.1763,0.0,0.0,0.0,0.0,0.0,0.0,0.0,0.0,0.0,0.0,0.0,0.0,0.0,0.0,0.0,0.0,0.0,0.0,0.0,0.0,0.0,0.0,0.0,0.0,0.0,0.0,0.0,0.0,0.0,0.0,0.0,0.0,0.0,0.0,0.0,0.0,0.0,0.0,0.0,0.0,0.0,0.0,0.0,0.0,0.0,0.0,0.0,0.0,0.0,0.0,0.0,0.0,0.0,0.0,0.0,0.0,0.0,0.0,0.0,0.0,0.0,0.0,0.0,0.0,0.0,0.0,0.0,0.0,0.0,0.0,0.0,0.0,0.0,1.2617,1.3064,1.3336,1.3077,1.2554,1.1866,1.0928,1.0025,0.9252,0.8804,0.8479,0.8389,0.8655,0.871,0.8906,0.9517,0.9825,1.0434,1.1624,1.2216,1.2779,1.3497,1.3892,1.3268,1.1155,0.9196,0.8056,0.8035,0.5538,0.4055,0.4017,0.1506,0.1305,0.3956,0.1485,0.0048,0.0048,0.0048,0.0048,0.0,0.0,0.0,0.0,0.0,0.0,0.0,0.0,0.0,0.0,0.0,0.0,0.0,0.0,0.0,0.0,0.0,0.0,0.0,0.0,0.0,0.0,0.0,0.0,0.0,0.0,0.0,0.0,0.0,0.0,0.0,0.0,0.0,0.0,0.0,0.0,0.0,0.0,0.0,0.0,0.0,0.0,0.0,0.0,0.0,0.0,0.0,0.0,0.0,0.0,0.0,0.0,0.0,0.0,0.0,0.0,0.0,0.0,0.0,0.0,0.0,0.0,0.0,0.0,0.0,0.0,0.0,0.0,0.0,0.0,0.0,0.0,0.0,1.1286,1.1726,1.206,1.1558,1.1287,1.0962,1.0263,0.9727,0.9286,0.8912,0.8628,0.8506,0.8784,0.875,0.9042,1.0046,1.029,1.0664,1.1658,1.2273,1.2211,1.1012,1.0165,0.9419,0.8818,0.6554,0.5191,0.5277,0.2771,0.1279,0.1275,0.0438,0.0386,0.1245,0.043,0.0,0.0,0.0,0.0,0.0,0.0,0.0,0.0,0.0,0.0,0.0,0.0,0.0,0.0,0.0,0.0,0.0,0.0,0.0,0.0,0.0,0.0,0.0,0.0,0.0,0.0,0.0,0.0,0.0,0.0,0.0,0.0,0.0,0.0,0.0,0.0,0.0,0.0,0.0,0.0,0.0,0.0,0.0,0.0,0.0,0.0,0.0,0.0,0.0,0.0,0.0,0.0,0.0,0.0,0.0,0.0,0.0,0.0,0.0,0.0,0.0,0.0,0.0,0.0,0.0,0.0,0.0,0.0,0.0,0.0,0.0,0.0,0.0,0.0,0.0,0.0,0.0,1.0272,1.0745,1.109,1.0663,1.0475,1.0305,0.9825,0.9422,0.9076,0.8865,0.8655,0.856,0.8777,0.8791,0.9076,0.993,1.0168,1.0274,1.034,1.0801,1.0431,0.863,0.6918,0.5964,0.6143,0.3842,0.2382,0.2469,0.0932,0.0,0.0,0.0,0.0,0.0,0.0,0.0,0.0,0.0,0.0,0.0,0.0,0.0,0.0,0.0,0.0,0.0,0.0,0.0,0.0,0.0,0.0,0.0,0.0,0.0,0.0,0.0,0.0,0.0,0.0,0.0,0.0,0.0,0.0,0.0,0.0,0.0,0.0,0.0,0.0,0.0,0.0,0.0,0.0,0.0,0.0,0.0,0.0,0.0,0.0,0.0,0.0,0.0,0.0,0.0,0.0,0.0,0.0,0.0,0.0,0.0,0.0,0.0,0.0,0.0,0.0,0.0,0.0,0.0,0.0,0.0,0.0,0.0,0.0,0.0,0.0,0.0,0.0,0.0,0.0,0.0,0.0,0.0,0.0,1.0032,1.0344,1.0213,1.0046,0.9852,0.9591,0.9103,0.0,0.8696,0.8587,0.8554,0.8723,0.8838,0.9048,0.9449,0.9734,0.9475,0.8238,0.81,0.7653,0.6458,0.4295,0.2942,0.3138,0.1242,0.0,0.0,0.0,0.0,0.0,0.0,0.0,0.0,0.0,0.0,0.0,0.0,0.0,0.0,0.0,0.0,0.0,0.0,0.0,0.0,0.0,0.0,0.0,0.0,0.0,0.0,0.0,0.0,0.0,0.0,0.0,0.0,0.0,0.0,0.0,0.0,0.0,0.0,0.0,0.0,0.0,0.0,0.0,0.0,0.0,0.0,0.0,0.0,0.0,0.0,0.0,0.0,0.0,0.0,0.0,0.0,0.0,0.0,0.0,0.0,0.0,0.0,0.0,0.0,0.0,0.0,0.0,0.0,0.0,0.0,0.0,0.0,0.0,0.0,0.0,0.0,0.0,0.0,0.0,0.0,0.0,0.0,0.0,0.0,0.0,0.0,0.8385,0.0,0.9183,0.8866,0.8886,0.8946,0.0,0.873,0.8676,0.856,0.8601,0.8771,0.915,0.9186,0.9492,1.0601,1.0839,1.0404,0.9113,0.6307,0.4327,0.4299,0.2185,0.0756,0.0807,0.0334,0.0,0.0,0.0,0.0,0.0,0.0,0.0,0.0,0.0,0.0,0.0,0.0,0.0,0.0,0.0,0.0,0.0,0.0,0.0,0.0,0.0,0.0,0.0,0.0,0.0,0.0,0.0,0.0,0.0,0.0,0.0,0.0,0.0,0.0,0.0,0.0,0.0,0.0,0.0,0.0,0.0,0.0,0.0,0.0,0.0,0.0,0.0,0.0,0.0,0.0,0.0,0.0,0.0,0.0,0.0,0.0,0.0,0.0,0.0,0.0,0.0,0.0,0.0,0.0,0.0,0.0,0.0,0.0,0.0,0.0,0.0,0.0,0.0,0.0,0.0,0.0,0.0,0.0,0.0,0.0,0.0,0.0,0.0,0.0,0.0,0.0,0.7988,0.8426,0.8852,0.8635,0.8669,0.8784,0.8818,0.8587,0.8372,0.841,0.8506,0.8703,0.9015,0.8505,0.8666,1.0504,0.9404,0.7827,0.6404,0.3591,0.176,0.1936,0.0801,0.0,0.0,0.0,0.0,0.0,0.0,0.0,0.0,0.0,0.0,0.0,0.0,0.0,0.0,0.0,0.0,0.0,0.0,0.0,0.0,0.0,0.0,0.0,0.0,0.0,0.0,0.0,0.0,0.0,0.0,0.0,0.0,0.0,0.0,0.0,0.0,0.0,0.0,0.0,0.0,0.0,0.0,0.0,0.0,0.0,0.0,0.0,0.0,0.0,0.0,0.0,0.0,0.0,0.0,0.0,0.0,0.0,0.0,0.0,0.0,0.0,0.0,0.0,0.0,0.0,0.0,0.0,0.0,0.0,0.0,0.0,0.0,0.0,0.0,0.0,0.0,0.0,0.0,0.0,0.0,0.0,0.0,0.0,0.0,0.0,0.0,0.0,0.0,0.0,0.8094,0.8554,0.898,0.8845,0.8858,0.8933,0.9063,0.856,0.8121,0.8301,0.8464,0.8541,0.8483,0.7533,0.7393,0.9289,0.6769,0.4134,0.292,0.1186,0.0,0.0,0.0,0.0,0.0,0.0,0.0,0.0,0.0,0.0,0.0,0.0,0.0,0.0,0.0,0.0,0.0,0.0,0.0,0.0,0.0,0.0,0.0,0.0,0.0,0.0,0.0,0.0,0.0,0.0,0.0,0.0,0.0,0.0,0.0,0.0,0.0,0.0,0.0,0.0,0.0,0.0,0.0,0.0,0.0,0.0,0.0,0.0,0.0,0.0,0.0,0.0,0.0,0.0,0.0,0.0,0.0,0.0,0.0,0.0,0.0,0.0,0.0,0.0,0.0,0.0,0.0,0.0,0.0,0.0,0.0,0.0,0.0,0.0,0.0,0.0,0.0,0.0,0.0,0.0,0.0,0.0,0.0,0.0,0.0,0.0,0.0,0.0,0.0,0.0,0.0,0.0,0.848,0.9049,0.9327,0.856,0.8655,0.8852,0.8642,0.8526,0.8418,0.8471,0.8676,0.8519,0.7525,0.7183,0.6874,0.6412,0.4465,0.3039,0.3034,0.1299,0.0,0.0,0.0,0.0,0.0,0.0,0.0,0.0,0.0,0.0,0.0,0.0,0.0,0.0,0.0,0.0,0.0,0.0,0.0,0.0,0.0,0.0,0.0,0.0,0.0,0.0,0.0,0.0,0.0,0.0,0.0,0.0,0.0,0.0,0.0,0.0,0.0,0.0,0.0,0.0,0.0,0.0,0.0,0.0,0.0,0.0,0.0,0.0,0.0,0.0,0.0,0.0,0.0,0.0,0.0,0.0,0.0,0.0,0.0,0.0,0.0,0.0,0.0,0.0,0.0,0.0,0.0,0.0,0.0,0.0,0.0,0.0,0.0,0.0,0.0,0.0,0.0,0.0,0.0,0.0,0.0,0.0,0.0,0.0,0.0,0.0,0.0,0.0,0.0,0.0,0.0,0.0,0.8263,0.8757,0.9122,0.8737,0.915,0.9625,0.9512,0.9266,0.9089,0.9089,0.9266,0.8927,0.7378,0.6463,0.5162,0.2946,0.2752,0.2574,0.1551,0.059,0.0,0.0,0.0,0.0,0.0,0.0,0.0,0.0,0.0,0.0,0.0,0.0,0.0,0.0,0.0,0.0,0.0,0.0,0.0,0.0,0.0,0.0,0.0,0.0,0.0,0.0,0.0,0.0,0.0,0.0,0.0,0.0,0.0,0.0,0.0,0.0,0.0,0.0,0.0,0.0,0.0,0.0,0.0,0.0,0.0,0.0,0.0,0.0,0.0,0.0,0.0,0.0,0.0,0.0,0.0,0.0,0.0,0.0,0.0,0.0,0.0,0.0,0.0,0.0,0.0,0.0,0.0,0.0,0.0,0.0,0.0,0.0,0.0,0.0,0.0,0.0,0.0,0.0,0.0,0.0,0.0,0.0,0.0,0.0,0.0,0.0,0.0,0.0,0.0,0.0,0.0,0.0,0.8142,0.8561,0.898,0.9048,0.9585,0.9988,0.9646,0.9224,0.8811,0.8472,0.8514,0.807,0.627,0.4738,0.2911,0.0411,0.1328,0.1805,0.0225,0.0,0.0,0.0,0.0,0.0,0.0,0.0,0.0,0.0,0.0,0.0,0.0,0.0,0.0,0.0,0.0,0.0,0.0,0.0,0.0,0.0,0.0,0.0,0.0,0.0,0.0,0.0,0.0,0.0,0.0,0.0,0.0,0.0,0.0,0.0,0.0,0.0,0.0,0.0,0.0,0.0,0.0,0.0,0.0,0.0,0.0,0.0,0.0,0.0,0.0,0.0,0.0,0.0,0.0,0.0,0.0,0.0,0.0,0.0,0.0,0.0,0.0,0.0,0.0,0.0,0.0,0.0,0.0,0.0,0.0,0.0,0.0,0.0,0.0,0.0,0.0,0.0,0.0,0.0,0.0,0.0,0.0,0.0,0.0,0.0,0.0,0.0,0.0,0.0,0.0,0.0,0.0,0.0,0.852,0.8893,0.9233,0.949,0.9503,0.9082,0.7671,0.7101,0.651,0.5148,0.498,0.4534,0.288,0.1346,0.0282,0.0042,0.0132,0.018,0.0,0.0,0.0,0.0,0.0,0.0,0.0,0.0,0.0,0.0,0.0,0.0,0.0,0.0,0.0,0.0,0.0,0.0,0.0,0.0,0.0,0.0,0.0,0.0,0.0,0.0,0.0,0.0,0.0,0.0,0.0,0.0,0.0,0.0,0.0,0.0,0.0,0.0,0.0,0.0,0.0,0.0,0.0,0.0,0.0,0.0,0.0,0.0,0.0,0.0,0.0,0.0,0.0,0.0,0.0,0.0,0.0,0.0,0.0,0.0,0.0,0.0,0.0,0.0,0.0,0.0,0.0,0.0,0.0,0.0,0.0,0.0,0.0,0.0,0.0,0.0,0.0,0.0,0.0,0.0,0.0,0.0,0.0,0.0,0.0,0.0,0.0,0.0,0.0,0.0,0.0,0.0,0.0,0.0,0.8223,0.7847,0.7719,0.9114,0.8824,0.8044,0.7641,0.7619,0.7213,0.5533,0.5208,0.4707,0.2851,0.1148,0.0,0.0,0.0,0.0,0.0,0.0,0.0,0.0,0.0,0.0,0.0,0.0,0.0,0.0,0.0,0.0,0.0,0.0,0.0,0.0,0.0,0.0,0.0,0.0,0.0,0.0,0.0,0.0,0.0,0.0,0.0,0.0,0.0,0.0,0.0,0.0,0.0,0.0,0.0,0.0,0.0,0.0,0.0,0.0,0.0,0.0,0.0,0.0,0.0,0.0,0.0,0.0,0.0,0.0,0.0,0.0,0.0,0.0,0.0,0.0,0.0,0.0,0.0,0.0,0.0,0.0,0.0,0.0,0.0,0.0,0.0,0.0,0.0,0.0,0.0,0.0,0.0,0.0,0.0,0.0,0.0,0.0,0.0,0.0,0.0,0.0,0.0,0.0,0.0,0.0,0.0,0.0,0.0,0.0,0.0,0.0,0.0,0.0,0.7367,0.6516,0.5969,0.7401,0.718,0.6506,0.6111,0.6699,0.6646,0.43,0.3814,0.3414,0.2107,0.0821,0.0,0.0,0.0,0.0,0.0,0.0,0.0,0.0,0.0,0.0,0.0,0.0,0.0,0.0,0.0,0.0,0.0,0.0,0.0,0.0,0.0,0.0,0.0,0.0,0.0,0.0,0.0,0.0,0.0,0.0,0.0,0.0,0.0,0.0,0.0,0.0,0.0,0.0,0.0,0.0,0.0,0.0,0.0,0.0,0.0,0.0,0.0,0.0,0.0,0.0,0.0,0.0,0.0,0.0,0.0,0.0,0.0,0.0,0.0,0.0,0.0,0.0,0.0,0.0,0.0,0.0,0.0,0.0,0.0,0.0,0.0,0.0,0.0,0.0,0.0,0.0,0.0,0.0,0.0,0.0,0.0,0.0,0.0,0.0,0.0,0.0,0.0,0.0,0.0,0.0,0.0,0.0,0.0,0.0,0.0,0.0,0.0,0.0,0.6035,0.5133,0.421,0.4224,0.4547,0.4403,0.2603,0.3695,0.4101,0.0716,0.0,0.0,0.0,0.0,0.0,0.0,0.0,0.0,0.0,0.0,0.0,0.0,0.0,0.0,0.0,0.0,0.0,0.0,0.0,0.0,0.0,0.0,0.0,0.0,0.0,0.0,0.0,0.0,0.0,0.0,0.0,0.0,0.0,0.0,0.0,0.0,0.0,0.0,0.0,0.0,0.0,0.0,0.0,0.0,0.0,0.0,0.0,0.0,0.0,0.0,0.0,0.0,0.0,0.0,0.0,0.0,0.0,0.0,0.0,0.0,0.0,0.0,0.0,0.0,0.0,0.0,0.0,0.0,0.0,0.0,0.0,0.0,0.0,0.0,0.0,0.0,0.0,0.0,0.0,0.0,0.0,0.0,0.0,0.0,0.0,0.0,0.0,0.0,0.0,0.0,0.0,0.0,0.0,0.0,0.0,0.0,0.0,0.0,0.0,0.0,0.0,0.0,0.766,0.5864,0.4386,0.5745,0.479,0.3331,0.2691,0.2989,0.2744,0.0481,0.0,0.0,0.0,0.0,0.0,0.0,0.0,0.0,0.0,0.0,0.0,0.0,0.0,0.0,0.0,0.0,0.0,0.0,0.0,0.0,0.0,0.0,0.0,0.0,0.0,0.0,0.0,0.0,0.0,0.0,0.0,0.0,0.0,0.0,0.0,0.0,0.0,0.0,0.0,0.0,0.0,0.0,0.0,0.0,0.0,0.0,0.0,0.0,0.0,0.0,0.0,0.0,0.0,0.0,0.0,0.0,0.0,0.0,0.0,0.0,0.0,0.0,0.0,0.0,0.0,0.0,0.0,0.0,0.0,0.0,0.0,0.0,0.0,0.0,0.0,0.0,0.0,0.0,0.0,0.0,0.0,0.0,0.0,0.0,0.0,0.0,0.0,0.0,0.0,0.0,0.0,0.0,0.0,0.0,0.0,0.0,0.0,0.0,0.0,0.0,0.0,0.0,0.5977,0.4127,0.2701,0.387,0.2943,0.1739,0.1633,0.1633,0.1329,0.0223,0.0,0.0,0.0,0.0,0.0,0.0,0.0,0.0,0.0,0.0,0.0,0.0,0.0,0.0,0.0,0.0,0.0,0.0,0.0,0.0,0.0,0.0,0.0,0.0,0.0,0.0,0.0,0.0,0.0,0.0,0.0,0.0,0.0,0.0,0.0,0.0,0.0,0.0,0.0,0.0,0.0,0.0,0.0,0.0,0.0,0.0,0.0,0.0,0.0,0.0,0.0,0.0,0.0,0.0,0.0,0.0,0.0,0.0,0.0,0.0,0.0,0.0,0.0,0.0,0.0,0.0,0.0,0.0,0.0,0.0,0.0,0.0,0.0,0.0,0.0,0.0,0.0,0.0,0.0,0.0,0.0,0.0,0.0,0.0,0.0,0.0,0.0,0.0,0.0,0.0,0.0,0.0,0.0,0.0,0.0,0.0,0.0,0.0,0.0,0.0,0.0,0.0,0.2693,0.1326,0.0171,0.0183,0.0114,0.0,0.0,0.0,0.0,0.0,0.0,0.0,0.0,0.0,0.0,0.0,0.0,0.0,0.0,0.0,0.0,0.0,0.0,0.0,0.0,0.0,0.0,0.0,0.0,0.0,0.0,0.0,0.0,0.0,0.0,0.0,0.0,0.0,0.0,0.0,0.0,0.0,0.0,0.0,0.0,0.0,0.0,0.0,0.0,0.0,0.0,0.0,0.0,0.0,0.0,0.0,0.0,0.0,0.0,0.0,0.0,0.0,0.0,0.0,0.0,0.0,0.0,0.0,0.0,0.0,0.0,0.0,0.0,0.0,0.0,0.0,0.0,0.0,0.0,0.0,0.0,0.0,0.0,0.0,0.0,0.0,0.0,0.0,0.0,0.0,0.0,0.0,0.0,0.0,0.0,0.0,0.0,0.0,0.0,0.0,0.0,0.0,0.0,0.0,0.0,0.0,0.0,0.0,0.0,0.0,0.0,0.0,0.5475,0.3512,0.1592,0.1687,0.0857,0.0,0.0,0.0,0.0,0.0,0.0,0.0,0.0,0.0,0.0,0.0,0.0,0.0,0.0,0.0,0.0,0.0,0.0,0.0,0.0,0.0,0.0,0.0,0.0,0.0,0.0,0.0,0.0,0.0,0.0,0.0,0.0,0.0,0.0,0.0,0.0,0.0,0.0,0.0,0.0,0.0,0.0,0.0,0.0,0.0,0.0,0.0,0.0,0.0,0.0,0.0,0.0,0.0,0.0,0.0,0.0,0.0,0.0,0.0,0.0,0.0,0.0,0.0,0.0,0.0,0.0,0.0,0.0,0.0,0.0,0.0,0.0,0.0,0.0,0.0,0.0,0.0,0.0,0.0,0.0,0.0,0.0,0.0,0.0,0.0,0.0,0.0,0.0,0.0,0.0,0.0,0.0,0.0,0.0,0.0,0.0,0.0,0.0,0.0,0.0,0.0,0.0,0.0,0.0,0.0,0.0,0.0,0.3619,0.2198,0.1045,0.1117,0.0559,0.0,0.0,0.0,0.0,0.0,0.0,0.0,0.0,0.0,0.0,0.0,0.0,0.0,0.0,0.0,0.0,0.0,0.0,0.0,0.0,0.0,0.0,0.0,0.0,0.0,0.0,0.0,0.0,0.0,0.0,0.0,0.0,0.0,0.0,0.0,0.0,0.0,0.0,0.0,0.0,0.0,0.0,0.0,0.0,0.0,0.0,0.0,0.0,0.0,0.0,0.0,0.0,0.0,0.0,0.0,0.0,0.0,0.0,0.0,0.0,0.0,0.0,0.0,0.0,0.0,0.0,0.0,0.0,0.0,0.0,0.0,0.0,0.0,0.0,0.0,0.0,0.0,0.0,0.0,0.0,0.0,0.0,0.0,0.0,0.0,0.0,0.0,0.0,0.0,0.0,0.0,0.0,0.0,0.0,0.0,0.0,0.0,0.0,0.0,0.0,0.0,0.0,0.0,0.0,0.0,0.0,0.0,0.0894,0.0161,0.0,0.0,0.0,0.0,0.0,0.0,0.0,0.0,0.0,0.0,0.0,0.0,0.0,0.0,0.0,0.0,0.0,0.0,0.0,0.0,0.0,0.0,0.0,0.0,0.0,0.0,0.0,0.0,0.0,0.0,0.0,0.0,0.0,0.0,0.0,0.0,0.0,0.0,0.0,0.0,0.0,0.0,0.0,0.0,0.0,0.0,0.0,0.0,0.0,0.0,0.0,0.0,0.0,0.0,0.0,0.0,0.0,0.0,0.0,0.0,0.0,0.0,0.0,0.0,0.0,0.0,0.0,0.0,0.0,0.0,0.0,0.0,0.0,0.0,0.0,0.0,0.0,0.0,0.0,0.0,0.0,0.0,0.0,0.0,0.0,0.0,0.0,0.0,0.0,0.0,0.0,0.0,0.0,0.0,0.0,0.0,0.0,0.0,0.0,0.0,0.0,0.0,0.0,0.0,0.0,0.0,0.0,0.0,0.0,0.0,0.1801,0.089,0.0,0.0,0.0,0.0,0.0,0.0,0.0,0.0,0.0,0.0,0.0,0.0,0.0,0.0,0.0,0.0,0.0,0.0,0.0,0.0,0.0,0.0,0.0,0.0,0.0,0.0,0.0,0.0,0.0,0.0,0.0,0.0,0.0,0.0,0.0,0.0,0.0,0.0,0.0,0.0,0.0,0.0,0.0,0.0,0.0,0.0,0.0,0.0,0.0,0.0,0.0,0.0,0.0,0.0,0.0,0.0,0.0,0.0,0.0,0.0,0.0,0.0,0.0,0.0,0.0,0.0,0.0,0.0,0.0,0.0,0.0,0.0,0.0,0.0,0.0,0.0,0.0,0.0,0.0,0.0,0.0,0.0,0.0,0.0,0.0,0.0,0.0,0.0,0.0,0.0,0.0,0.0,0.0,0.0,0.0,0.0,0.0,0.0,0.0,0.0,0.0,0.0,0.0,0.0,0.0,0.0,0.0,0.0,0.0,0.0,0.1054,0.0434,0.0,0.0,0.0,0.0,0.0,0.0,0.0,0.0,0.0,0.0,0.0,0.0,0.0,0.0,0.0,0.0,0.0,0.0,0.0,0.0,0.0,0.0,0.0,0.0,0.0,0.0,0.0,0.0,0.0,0.0,0.0,0.0,0.0,0.0,0.0,0.0,0.0,0.0,0.0,0.0,0.0,0.0,0.0,0.0,0.0,0.0,0.0,0.0,0.0,0.0,0.0,0.0,0.0,0.0,0.0,0.0,0.0,0.0,0.0,0.0,0.0,0.0,0.0,0.0,0.0,0.0,0.0,0.0,0.0,0.0,0.0,0.0,0.0,0.0,0.0,0.0,0.0,0.0,0.0,0.0,0.0,0.0,0.0,0.0,0.0,0.0,0.0,0.0,0.0,0.0,0.0,0.0,0.0,0.0,0.0,0.0,0.0,0.0,0.0,0.0,0.0,0.0,0.0,0.0,0.0,0.0,0.0,0.0,0.0,0.0,0.0253,0.0,0.0,0.0,0.0,0.0,0.0,0.0,0.0,0.0,0.0,0.0,0.0,0.0,0.0,0.0,0.0,0.0,0.0,0.0,0.0,0.0,0.0,0.0,0.0,0.0,0.0,0.0,0.0,0.0,0.0,0.0,0.0,0.0,0.0,0.0,0.0,0.0,0.0,0.0,0.0,0.0,0.0,0.0,0.0,0.0,0.0,0.0,0.0,0.0,0.0,0.0,0.0,0.0,0.0,0.0,0.0,0.0,0.0,0.0,0.0,0.0,0.0,0.0,0.0,0.0,0.0,0.0,0.0,0.0,0.0,0.0,0.0,0.0,0.0,0.0,0.0,0.0,0.0,0.0,0.0,0.0,0.0,0.0,0.0,0.0,0.0,0.0,0.0,0.0,0.0,0.0,0.0,0.0,0.0,0.0,0.0,0.0,0.0,0.0,0.0,0.0,0.0,0.0,0.0,0.0,0.0,0.0,0.0,0.0,0.0,0.0,0.0026,0.0,0.0,0.0,0.0,0.0,0.0,0.0,0.0,0.0,0.0,0.0,0.0,0.0,0.0,0.0,0.0,0.0,0.0,0.0,0.0,0.0,0.0,0.0,0.0,0.0,0.0,0.0,0.0,0.0,0.0,0.0,0.0,0.0,0.0,0.0,0.0,0.0,0.0,0.0,0.0,0.0,0.0,0.0,0.0,0.0,0.0,0.0,0.0,0.0,0.0,0.0,0.0,0.0,0.0,0.0,0.0,0.0,0.0,0.0,0.0,0.0,0.0,0.0,0.0,0.0,0.0,0.0,0.0,0.0,0.0,0.0,0.0,0.0,0.0,0.0,0.0,0.0,0.0,0.0,0.0,0.0,0.0,0.0,0.0,0.0,0.0,0.0,0.0,0.0,0.0,0.0,0.0,0.0,0.0,0.0,0.0,0.0,0.0,0.0,0.0,0.0,0.0,0.0,0.0,0.0,0.0,0.0,0.0,0.0,0.0,0.0,0.0,0.0,0.0,0.0,0.0,0.0,0.0,0.0,0.0,0.0,0.0,0.0,0.0,0.0,0.0,0.0,0.0,0.0,0.0,0.0,0.0,0.0,0.0,0.0,0.0,0.0,0.0,0.0,0.0,0.0,0.0,0.0,0.0,0.0,0.0,0.0,0.0,0.0,0.0,0.0,0.0,0.0,0.0,0.0,0.0,0.0,0.0,0.0,0.0,0.0,0.0,0.0,0.0,0.0,0.0,0.0,0.0,0.0,0.0,0.0,0.0,0.0,0.0,0.0,0.0,0.0,0.0,0.0,0.0,0.0,0.0,0.0,0.0,0.0,0.0,0.0,0.0,0.0,0.0,0.0,0.0,0.0,0.0,0.0,0.0,0.0,0.0,0.0,0.0,0.0,0.0,0.0,0.0,0.0,0.0,0.0,0.0,0.0,0.0,0.0,0.0,0.0,0.0,0.0,0.0,0.0,0.0,0.0,0.0,0.0,0.0,0.0,0.0,0.0,0.0,0.0,0.0,0.0,0.0,0.0,0.0,0.0,0.0,0.0,0.0,0.0,0.0,0.0,0.0,0.0,0.0,0.0,0.0,0.0,0.0,0.0,0.0,0.0,0.0,0.0,0.0,0.0,0.0,0.0,0.0,0.0,0.0,0.0,0.0,0.0,0.0,0.0,0.0,0.0,0.0,0.0,0.0,0.0,0.0,0.0,0.0,0.0,0.0,0.0,0.0,0.0,0.0,0.0,0.0,0.0,0.0,0.0,0.0,0.0,0.0,0.0,0.0,0.0,0.0,0.0,0.0,0.0,0.0,0.0,0.0,0.0,0.0,0.0,0.0,0.0,0.0,0.0,0.0,0.0,0.0,0.0,0.0,0.0,0.0,0.0,0.0,0.0,0.0,0.0,0.0,0.0,0.0,0.0,0.0,0.0,0.0,0.0,0.0,0.0,0.0,0.0,0.0,0.0,0.0,0.0,0.0,0.0,0.0,0.0,0.0,0.0,0.0,0.0,0.0,0.0,0.0,0.0,0.0,0.0,0.0,0.0,0.0,0.0,0.0,0.0,0.0,0.0,0.0,0.0,0.0,0.0,0.0,0.0,0.0,0.0,0.0,0.0,0.0,0.0,0.0,0.0,0.0,0.0,0.0,0.0,0.0,0.0,0.0,0.0,0.0,0.0,0.0,0.0,0.0,0.0,0.0,0.0,0.0,0.0,0.0,0.0,0.0,0.0,0.0,0.0,0.0,0.0,0.0,0.0,0.0,0.0,0.0,0.0,0.0,0.0,0.0,0.0,0.0,0.0,0.0,0.0,0.0,0.0,0.0,0.0,0.0,0.0,0.0,0.0,0.0,0.0,0.0,0.0,0.0,0.0,0.0,0.0,0.0,0.0,0.0,0.0,0.0,0.0,0.0,0.0,0.0,0.0,0.0,0.0,0.0,0.0,0.0,0.0,0.0,0.0,0.0,0.0,0.0,0.0,0.0,0.0,0.0,0.0,0.0,0.0,0.0,0.0,0.0,0.0,0.0,0.0,0.0,0.0,0.0,0.0,0.0,0.0,0.0,0.0,0.0,0.0,0.0,0.0,0.0,0.0,0.0,0.0,0.0,0.0,0.0,0.0,0.0,0.0,0.0,0.0,0.0,0.0,0.0,0.0,0.0,0.0,0.0,0.0,0.0,0.0,0.0,0.0,0.0,0.0,0.0,0.0,0.0,0.0,0.0,0.0,0.0,0.0,0.0,0.0,0.0,0.0,0.0,0.0,0.0,0.0,0.0,0.0,0.0,0.0,0.0,0.0,0.0,0.0,0.0,0.0,0.0,0.0,0.0,0.0,0.0,0.0,0.0,0.0,0.0,0.0,0.0,0.0,0.0,0.0,0.0,0.0,0.0,0.0,0.0,0.0,0.0,0.0,0.0,0.0,0.0,0.0,0.0,0.0,0.0,0.0,0.0,0.0,0.0,0.0,0.0,0.0,0.0,0.0,0.0,0.0,0.0,0.0,0.0,0.0,0.0,0.0,0.0,0.0,0.0,0.0,0.0,0.0,0.0,0.0,0.0,0.0,0.0,0.0,0.0,0.0,0.0,0.0,0.0,0.0,0.0,0.0,0.0,0.0,0.0,0.0,0.0,0.0,0.0,0.0,0.0,0.0,0.0,0.0,0.0,0.0,0.0,0.0,0.0,0.0,0.0,0.0,0.0,0.0,0.0,0.0,0.0,0.0,0.0,0.0,0.0,0.0,0.0,0.0,0.0,0.0,0.0,0.0,0.0,0.0,0.0,0.0,0.0,0.0,0.0,0.0,0.0,0.0,0.0,0.0,0.0,0.0,0.0,0.0,0.0,0.0,0.0,0.0,0.0,0.0,0.0,0.0,0.0,0.0,0.0,0.0,0.0,0.0,0.0,0.0,0.0,0.0,0.0,0.0,0.0,0.0,0.0,0.0,0.0,0.0,0.0,0.0,0.0,0.0,0.0,0.0,0.0,0.0,0.0,0.0,0.0,0.0,0.0,0.0,0.0,0.0,0.0,0.0,0.0,0.0,0.0,0.0,0.0,0.0,0.0,0.0,0.0,0.0,0.0,0.0,0.0,0.0,0.0,0.0,0.0,0.0,0.0,0.0,0.0,0.0,0.0,0.0,0.0,0.0,0.0,0.0,0.0,0.0,0.0,0.0,0.0,0.0,0.0,0.0,0.0,0.0,0.0,0.0,0.0,0.0,0.0,0.0,0.0,0.0,0.0,0.0,0.0,0.0,0.0,0.0,0.0,0.0,0.0,0.0,0.0,0.0,0.0,0.0,0.0,0.0,0.0,0.0,0.0,0.0,0.0,0.0,0.0,0.0,0.0,0.0,0.0,0.0,0.0,0.0,0.0,0.0,0.0,0.0,0.0,0.0,0.0,0.0,0.0,0.0,0.0,0.0,0.0,0.0,0.0,0.0,0.0,0.0,0.0,0.0,0.0,0.0,0.0,0.0,0.0,0.0,0.0,0.0,0.0,0.0,0.0,0.0,0.0,0.0,0.0,0.0,0.0,0.0,0.0,0.0,0.0,0.0,0.0,0.0,0.0,0.0,0.0,0.0,0.0,0.0,0.0,0.0,0.0,0.0,0.0,0.0,0.0,0.0,0.0,0.0,0.0,0.0,0.0,0.0,0.0,0.0,0.0,0.0,0.0,0.0,0.0,0.0,0.0,0.0,0.0,0.0,0.0,0.0,0.0,0.0,0.0,0.0,0.0,0.0,0.0,0.0,0.0,0.0,0.0,0.0,0.0,0.0,0.0,0.0,0.0,0.0,0.0,0.0,0.0,0.0,0.0,0.0,0.0,0.0,0.0,0.0,0.0,0.0,0.0,0.0,0.0,0.0,0.0,0.0,0.0,0.0,0.0,0.0,0.0,0.0,0.0,0.0,0.0,0.0,0.0,0.0,0.0,0.0,0.0,0.0,0.0,0.0,0.0,0.0,0.0,0.0,0.0,0.0,0.0,0.0,0.0,0.0,0.0,0.0,0.0,0.0,0.0,0.0,0.0,0.0,0.0,0.0,0.0,0.0,0.0,0.0,0.0,0.0,0.0,0.0,0.0,0.0,0.0,0.0,0.0,0.0,0.0,0.0,0.0,0.0,0.0,0.0,0.0,0.0,0.0,0.0,0.0,0.0,0.0,0.0,0.0,0.0,0.0,0.0,0.0,0.0,0.0,0.0,0.0,0.0,0.0,0.0,0.0,0.0,0.0,0.0,0.0,0.0,0.0,0.0,0.0,0.0,0.0,0.0,0.0,0.0,0.0,0.0,0.0,0.0,0.0,0.0,0.0,0.0,0.0,0.0,0.0,0.0,0.0,0.0,0.0,0.0,0.0,0.0,0.0,0.0,0.0,0.0,0.0,0.0,0.0,0.0,0.0,0.0,0.0,0.0,0.0,0.0,0.0,0.0,0.0,0.0,0.0,0.0,0.0,0.0,0.0,0.0,0.0,0.0,0.0,0.0,0.0,0.0,0.0,0.0,0.0,0.0,0.0,0.0,0.0,0.0,0.0,0.0,0.0,0.0,0.0,0.0,0.0,0.0,0.0,0.0,0.0,0.0,0.0,0.0,0.0,0.0,0.0,0.0,0.0,0.0,0.0,0.0,0.0,0.0,0.0,0.0,0.0,0.0,0.0,0.0,0.0,0.0,0.0,0.0,0.0,0.0,0.0,0.0,0.0,0.0,0.0,0.0,0.0,0.0,0.0,0.0,0.0,0.0,0.0,0.0,0.0,0.0,0.0,0.0,0.0,0.0,0.0,0.0,0.0,0.0,0.0,0.0,0.0,0.0,0.0,0.0,0.0,0.0,0.0,0.0,0.0,0.0,0.0,0.0,0.0,0.0,0.0,0.0,0.0,0.0,0.0,0.0,0.0,0.0,0.0,0.0,0.0,0.0,0.0,0.0,0.0,0.0,0.0,0.0,0.0,0.0,0.0,0.0,0.0,0.0,0.0,0.0,0.0,0.0,0.0,0.0,0.0,0.0,0.0,0.0,0.0,0.0,0.0,0.0,0.0,0.0,0.0,0.0,0.0,0.0,0.0,0.0,0.0,0.0,0.0,0.0,0.0,0.0,0.0,0.0,0.0,0.0,0.0,0.0,0.0,0.0,0.0,0.0,0.0,0.0,0.0,0.0,0.0,0.0,0.0,0.0,0.0,0.0,0.0,0.0,0.0,0.0,0.0,0.0,0.0,0.0,0.0,0.0,0.0,0.0,0.0,0.0,0.0,0.0,0.0,0.0,0.0,0.0,0.0,0.0,0.0,0.0,0.0,0.0,0.0,0.0,0.0,0.0,0.0,0.0,0.0,0.0,0.0,0.0,0.0,0.0,0.0,0.0,0.0,0.0,0.0,0.0,0.0,0.0,0.0,0.0,0.0,0.0,0.0,0.0,0.0,0.0,0.0,0.0,0.0,0.0,0.0,0.0,0.0,0.0,0.0,0.0,0.0,0.0,0.0,0.0,0.0,0.0,0.0,0.0,0.0,0.0,0.0,0.0,0.0,0.0,0.0,0.0,0.0,0.0,0.0,0.0,0.0,0.0,0.0,0.0,0.0,0.0,0.0,0.0,0.0,0.0,0.0,0.0,0.0,0.0,0.0,0.0,0.0,0.0,0.0,0.0,0.0,0.0,0.0,0.0,0.0,0.0,0.0,0.0,0.0,0.0,0.0,0.0,0.0,0.0,0.0,0.0,0.0,0.0,0.0,0.0,0.0,0.0,0.0,0.0,0.0,0.0,0.0,0.0,0.0,0.0,0.0,0.0,0.0,0.0,0.0,0.0,0.0,0.0,0.0,0.0,0.0,0.0,0.0,0.0,0.0,0.0,0.0,0.0,0.0,0.0,0.0,0.0,0.0,0.0,0.0,0.0,0.0,0.0,0.0,0.0,0.0,0.0,0.0,0.0,0.0,0.0,0.0,0.0,0.0,0.0,0.0,0.0,0.0,0.0,0.0,0.0,0.0,0.0,0.0,0.0,0.0,0.0,0.0,0.0,0.0,0.0,0.0,0.0,0.0,0.0,0.0,0.0,0.0,0.0,0.0,0.0,0.0,0.0,0.0,0.0,0.0,0.0,0.0,0.0,0.0,0.0,0.0,0.0,0.0,0.0,0.0,0.0,0.0,0.0,0.0,0.0,0.0,0.0,0.0,0.0,0.0,0.0,0.0,0.0,0.0,0.0,0.0,0.0,0.0,0.0,0.0,0.0,0.0,0.0,0.0,0.0,0.0,0.0,0.0,0.0,0.0,0.0,0.0,0.0,0.0,0.0,0.0,0.0,0.0,0.0,0.0,0.0,0.0,0.0,0.0,0.0,0.0,0.0,0.0,0.0,0.0,0.0,0.0,0.0,0.0,0.0,0.0,0.0,0.0,0.0,0.0,0.0,0.0,0.0,0.0,0.0,0.0,0.0,0.0,0.0,0.0,0.0,0.0,0.0,0.0,0.0,0.0,0.0,0.0,0.0,0.0,0.0,0.0,0.0,0.0,0.0,0.0,0.0,0.0,0.0,0.0,0.0,0.0,0.0,0.0,0.0,0.0,0.0,0.0,0.0,0.0,0.0,0.0,0.0,0.0,0.0,0.0,0.0,0.0,0.0,0.0,0.0,0.0,0.0,0.0,0.0,0.0,0.0,0.0,0.0,0.0,0.0,0.0,0.0,0.0,0.0,0.0,0.0,0.0,0.0,0.0,0.0,0.0,0.0,0.0,0.0,0.0,0.0,0.0,0.0,0.0,0.0,0.0,0.0,0.0,0.0,0.0,0.0,0.0,0.0,0.0,0.0,0.0,0.0,0.0,0.0,0.0,0.0,0.0,0.0,0.0,0.0,0.0,0.0,0.0,0.0,0.0,0.0,0.0,0.0,0.0,0.0,0.0,0.0,0.0,0.0,0.0,0.0,0.0,0.0,0.0,0.0,0.0,0.0,0.0,0.0,0.0,0.0,0.0,0.0,0.0,0.0,0.0,0.0,0.0,0.0,0.0,0.0,0.0,0.0,0.0,0.0,0.0,0.0,0.0,0.0,0.0,0.0,0.0,0.0,0.0,0.0,0.0,0.0,0.0,0.0,0.0,0.0,0.0,0.0,0.0,0.0,0.0,0.0,0.0,0.0,0.0,0.0,0.0,0.0,0.0,0.0,0.0,0.0,0.0,0.0,0.0,0.0,0.0,0.0,0.0,0.0,0.0,0.0,0.0,0.0,0.0,0.0,0.0,0.0,0.0,0.0,0.0,0.0,0.0,0.0,0.0,0.0,0.0,0.0,0.0,0.0,0.0,0.0,0.0,0.0,0.0,0.0,0.0,0.0,0.0,0.0,0.0,0.0,0.0,0.0,0.0,0.0,0.0,0.0,0.0,0.0,0.0,0.0,0.0,0.0,0.0,0.0,0.0,0.0,0.0,0.0,0.0,0.0,0.0,0.0,0.0,0.0,0.0,0.0,0.0,0.0,0.0,0.0,0.0,0.0,0.0,0.0,0.0,0.0,0.0,0.0,0.0,0.0,0.0,0.0,0.0,0.0,0.0,0.0,0.0,0.0,0.0,0.0,0.0,0.0,0.0,0.0,0.0,0.0,0.0,0.0,0.0,0.0,0.0,0.0,0.0,0.0,0.0,0.0,0.0,0.0,0.0,0.0,0.0,0.0,0.0,0.0,0.0,0.0,0.0,0.0,0.0,0.0,0.0,0.0,0.0,0.0,0.0,0.0,0.0,0.0,0.0,0.0,0.0,0.0,0.0,0.0,0.0,0.0,0.0,0.0,0.0,0.0,0.0,0.0,0.0,0.0,0.0,0.0,0.0,0.0,0.0,0.0,0.0,0.0,0.0,0.0,0.0,0.0,0.0,0.0,0.0,0.0,0.0,0.0,0.0,0.0,0.0,0.0,0.0,0.0,0.0,0.0,0.0,0.0,-0.0897,-0.0807]},{"header":{"parameterUnit":"m.s-1","parameterCategory":1,"la1":30.6,"la2":29.2853,"lo1":-89.7004,"lo2":-87.6739,"dy":0.0162,"dx":0.0183,"nx":112,"ny":82,"refTime":"2024-09-06T06:00:00:Z","depth":0,"parameterNumber":3,"parameterNumberName":"V-component_of_WINDS"},"data":[0.0,0.0,0.0,0.0,0.0,0.0,0.0,0.0,0.0,0.0,0.0,0.0,0.0,0.0,0.0,0.0,0.0,0.0,0.0,0.0,0.0,0.0,0.0,0.0,0.0,0.0,0.0,0.0,0.0,0.0,0.0,0.0,0.0,0.0,0.0,0.0,0.0,0.0,0.0,0.0,0.0,0.0,0.0,0.0,0.0,0.0,0.0,0.0,0.0,0.0,0.0,0.0,0.0,0.0,0.0,0.0,0.0,0.0,0.0,0.0,0.0,0.0,0.0,0.0,0.0,0.0,0.0,0.0,0.0,0.0,0.0,0.0,0.0,0.0,0.0,0.0,0.0,0.0,0.0,0.0,0.0,0.0,0.0,0.0,0.0,0.0,0.0,0.0,0.0,0.0,5.3959,5.8621,6.3649,6.6696,6.6696,6.5595,6.2022,5.5207,0.0,0.0,0.0,0.0,0.0,0.0,0.0,0.0,0.0,0.0,0.0,0.0,0.0,0.0,0.0,0.0,0.0,0.0,0.0,0.0,0.0,0.0,0.0,0.0,0.0,0.0,0.0,0.0,0.0,0.0,0.0,0.0,0.0,0.0,0.0,0.0,0.0,0.0,0.0,0.0,0.0,0.0,0.0,0.0,0.0,0.0,0.0,0.0,0.0,0.0,0.0,0.0,0.0,0.0,0.0,0.0,0.0,0.0,0.0,0.0,0.0,0.0,0.0,0.0,0.0,0.0,0.0,0.0,0.0,0.0,0.0,0.0,0.0,0.0,0.0,0.0,0.0,0.0,0.0,0.0,0.0,0.0,0.0,0.0,0.0,0.0,0.0,0.0,0.0,0.0,0.0,0.0,0.0,0.0,0.0,0.0,0.0,0.0,0.0,0.0,0.0,0.0,0.0,0.0,5.5893,6.338,6.6182,6.7517,6.7517,6.4861,6.1251,5.6701,0.0,0.0,0.0,0.0,0.0,0.0,0.0,0.0,0.0,0.0,0.0,0.0,0.0,0.0,0.0,0.0,0.0,0.0,0.0,0.0,0.0,0.0,0.0,0.0,0.0,0.0,0.0,0.0,0.0,0.0,0.0,0.0,0.0,0.0,0.0,0.0,0.0,0.0,0.0,0.0,0.0,0.0,0.0,0.0,0.0,0.0,0.0,0.0,0.0,0.0,0.0,0.0,0.0,0.0,0.0,0.0,0.0,0.0,0.0,0.0,0.0,0.0,0.0,0.0,0.0,0.0,0.0,0.0,0.0,0.0,0.0,0.0,0.0,0.0,0.0,0.0,0.0,0.0,0.0,0.0,0.0,0.0,0.0,0.0,0.0,0.0,0.0,0.0,0.0,0.0,0.0,0.0,0.0,0.0,0.0,0.0,0.0,0.0,0.0,0.0,0.0,0.0,0.0,5.4792,5.8902,6.5264,6.699,6.7517,6.71,6.4457,6.0701,5.5831,5.2821,0.0,0.0,0.0,0.0,0.0,0.0,0.0,0.0,0.0,0.0,0.0,0.0,0.0,0.0,0.0,0.0,0.0,0.0,0.0,0.0,0.0,0.0,0.0,0.0,0.0,0.0,0.0,0.0,0.0,0.0,0.0,0.0,0.0,0.0,0.0,0.0,0.0,0.0,0.0,0.0,0.0,0.0,0.0,0.0,0.0,0.0,0.0,0.0,0.0,0.0,0.0,0.0,0.0,0.0,0.0,0.0,0.0,0.0,0.0,0.0,0.0,0.0,0.0,0.0,0.0,0.0,0.0,0.0,0.0,0.0,0.0,0.0,0.0,0.0,0.0,0.0,0.0,0.0,0.0,0.0,0.0,0.0,0.0,0.0,0.0,0.0,0.0,0.0,0.0,0.0,0.0,0.0,0.0,0.0,0.0,0.0,0.0,0.0,0.0,0.0,0.0,0.0,5.9134,6.2022,6.6329,6.7333,6.737,6.6549,6.371,5.9783,5.473,5.0655,0.0,0.0,0.0,0.0,0.0,0.0,0.0,0.0,0.0,0.0,0.0,0.0,0.0,0.0,0.0,0.0,0.0,0.0,0.0,0.0,0.0,0.0,0.0,0.0,0.0,0.0,0.0,0.0,0.0,0.0,0.0,0.0,0.0,0.0,0.0,0.0,0.0,0.0,0.0,0.0,0.0,0.0,0.0,0.0,0.0,0.0,0.0,0.0,0.0,0.0,0.0,0.0,0.0,0.0,0.0,0.0,0.0,0.0,0.0,0.0,0.0,0.0,0.0,0.0,0.0,0.0,0.0,0.0,0.0,0.0,0.0,0.0,0.0,0.0,0.0,0.0,0.0,0.0,0.0,0.0,0.0,0.0,0.0,0.0,0.0,0.0,0.0,0.0,0.0,0.0,0.0,0.0,0.0,0.0,0.0,0.0,0.0,0.0,0.0,0.0,0.0,0.0,6.0431,6.4763,6.7333,6.7664,6.737,6.6549,6.2169,5.8022,5.462,4.8526,0.0,0.0,0.0,0.0,0.0,0.0,0.0,0.0,0.0,0.0,0.0,0.0,0.0,0.0,0.0,0.0,0.0,0.0,0.0,0.0,0.0,0.0,0.0,0.0,0.0,0.0,0.0,0.0,0.0,0.0,0.0,0.0,0.0,0.0,0.0,0.0,0.0,0.0,0.0,0.0,0.0,0.0,0.0,0.0,0.0,0.0,0.0,0.0,0.0,0.0,0.0,0.0,0.0,0.0,0.0,0.0,0.0,0.0,0.0,0.0,0.0,0.0,0.0,0.0,0.0,0.0,0.0,0.0,0.0,0.0,0.0,0.0,0.0,0.0,0.0,0.0,0.0,0.0,0.0,0.0,0.0,0.0,0.0,0.0,0.0,0.0,0.0,0.0,0.0,0.0,0.0,0.0,0.0,0.0,0.0,0.0,0.0,0.0,0.0,0.0,0.0,0.0,5.9208,6.3319,6.7297,6.77,6.7187,6.5852,6.3086,5.9233,5.3985,0.0,0.0,0.0,0.0,0.0,0.0,0.0,0.0,0.0,0.0,0.0,0.0,0.0,0.0,0.0,0.0,0.0,0.0,0.0,0.0,0.0,0.0,0.0,0.0,0.0,0.0,0.0,0.0,0.0,0.0,0.0,0.0,0.0,0.0,0.0,0.0,0.0,0.0,0.0,0.0,0.0,0.0,0.0,0.0,0.0,0.0,0.0,0.0,0.0,0.0,0.0,0.0,0.0,0.0,0.0,0.0,0.0,0.0,0.0,0.0,0.0,0.0,0.0,0.0,0.0,0.0,0.0,0.0,0.0,0.0,0.0,0.0,0.0,0.0,0.0,0.0,0.0,0.0,0.0,0.0,0.0,0.0,0.0,0.0,0.0,0.0,0.0,0.0,0.0,0.0,0.0,0.0,0.0,0.0,0.0,0.0,0.0,0.0,0.0,0.0,0.0,0.0,5.4887,5.9318,6.3429,6.7297,6.77,6.704,6.5435,6.305,5.9123,5.3177,0.0,0.0,0.0,0.0,0.0,0.0,0.0,0.0,0.0,0.0,0.0,0.0,0.0,0.0,0.0,0.0,0.0,0.0,0.0,0.0,0.0,0.0,0.0,0.0,0.0,0.0,0.0,0.0,0.0,0.0,0.0,0.0,0.0,0.0,0.0,0.0,0.0,0.0,0.0,0.0,0.0,0.0,0.0,0.0,0.0,0.0,0.0,0.0,0.0,0.0,0.0,0.0,0.0,0.0,0.0,0.0,0.0,0.0,0.0,0.0,0.0,0.0,0.0,0.0,0.0,0.0,0.0,0.0,0.0,0.0,0.0,0.0,0.0,0.0,0.0,0.0,0.0,0.0,0.0,0.0,0.0,0.0,0.0,0.0,0.0,0.0,0.0,0.0,0.0,0.0,0.0,0.0,0.0,0.0,0.0,0.0,0.0,0.0,0.0,0.0,0.0,0.0,5.5218,6.1263,6.5925,6.7517,6.77,6.704,6.5435,6.1582,5.7178,0.0,0.0,0.0,0.0,0.0,0.0,0.0,0.0,0.0,0.0,0.0,0.0,0.0,0.0,0.0,0.0,0.0,0.0,0.0,0.0,0.0,0.0,0.0,0.0,0.0,0.0,0.0,0.0,0.0,0.0,0.0,0.0,0.0,0.0,0.0,0.0,0.0,0.0,0.0,0.0,0.0,0.0,0.0,0.0,0.0,0.0,0.0,0.0,0.0,0.0,0.0,0.0,0.0,0.0,0.0,0.0,0.0,0.0,0.0,0.0,0.0,0.0,0.0,0.0,0.0,0.0,0.0,0.0,0.0,0.0,0.0,0.0,0.0,0.0,0.0,0.0,0.0,0.0,0.0,0.0,0.0,0.0,0.0,0.0,0.0,0.0,0.0,0.0,0.0,0.0,0.0,0.0,0.0,0.0,0.0,0.0,0.0,0.0,0.0,0.0,0.0,0.0,0.0,5.5978,6.163,6.5925,6.7517,6.77,6.704,6.5435,6.3123,5.9196,5.3214,0.0,0.0,0.0,0.0,0.0,0.0,0.0,0.0,0.0,0.0,0.0,0.0,0.0,0.0,0.0,0.0,0.0,0.0,0.0,0.0,0.0,0.0,0.0,0.0,0.0,0.0,0.0,0.0,0.0,0.0,0.0,0.0,0.0,0.0,0.0,0.0,0.0,0.0,0.0,0.0,0.0,0.0,0.0,0.0,0.0,0.0,0.0,0.0,0.0,0.0,0.0,0.0,0.0,0.0,0.0,0.0,0.0,0.0,0.0,0.0,0.0,0.0,0.0,0.0,0.0,0.0,0.0,0.0,0.0,0.0,0.0,0.0,0.0,0.0,0.0,0.0,0.0,0.0,0.0,0.0,0.0,0.0,0.0,0.0,0.0,0.0,0.0,0.0,0.0,0.0,0.0,0.0,0.0,0.0,0.0,0.0,0.0,0.0,0.0,0.0,0.0,0.0,5.626,6.1765,6.5925,6.7517,6.77,6.704,6.5435,6.3747,6.004,5.3618,0.0,0.0,0.0,0.0,0.0,0.0,0.0,0.0,0.0,0.0,0.0,0.0,0.0,0.0,0.0,0.0,0.0,0.0,0.0,0.0,0.0,0.0,0.0,0.0,0.0,0.0,0.0,0.0,0.0,0.0,0.0,0.0,0.0,0.0,0.0,0.0,0.0,0.0,0.0,0.0,0.0,0.0,0.0,0.0,0.0,0.0,0.0,0.0,0.0,0.0,0.0,0.0,0.0,0.0,0.0,0.0,0.0,0.0,0.0,0.0,0.0,0.0,0.0,0.0,0.0,0.0,0.0,0.0,0.0,0.0,0.0,0.0,0.0,0.0,0.0,0.0,0.0,0.0,0.0,0.0,0.0,0.0,0.0,0.0,0.0,0.0,0.0,0.0,0.0,0.0,0.0,0.0,0.0,0.0,0.0,0.0,0.0,0.0,0.0,0.0,0.0,0.0,5.637,6.1802,6.5925,6.7517,6.77,6.7076,6.5545,6.3894,6.026,5.4021,0.0,0.0,0.0,0.0,0.0,0.0,0.0,0.0,0.0,0.0,0.0,0.0,0.0,0.0,0.0,0.0,0.0,0.0,0.0,0.0,0.0,0.0,0.0,0.0,0.0,0.0,0.0,0.0,0.0,0.0,0.0,0.0,0.0,0.0,0.0,0.0,0.0,0.0,0.0,0.0,0.0,0.0,0.0,0.0,0.0,0.0,0.0,0.0,0.0,0.0,0.0,0.0,0.0,0.0,0.0,0.0,0.0,0.0,0.0,0.0,4.7204,4.5002,0.0,0.0,0.0,0.0,0.0,0.0,0.0,0.0,0.0,0.0,0.0,0.0,0.0,0.0,0.0,0.0,0.0,0.0,0.0,0.0,0.0,0.0,0.0,0.0,0.0,0.0,0.0,0.0,0.0,0.0,0.0,0.0,0.0,0.0,0.0,0.0,0.0,0.0,0.0,0.0,5.7226,6.2181,6.5925,6.7517,6.77,6.7297,6.6329,6.4751,6.1851,5.7262,5.259,0.0,0.0,0.0,0.0,0.0,0.0,0.0,0.0,0.0,0.0,0.0,0.0,0.0,0.0,0.0,0.0,0.0,0.0,0.0,0.0,0.0,0.0,0.0,0.0,0.0,0.0,0.0,0.0,0.0,0.0,0.0,0.0,0.0,0.0,0.0,0.0,0.0,0.0,0.0,0.0,0.0,0.0,0.0,0.0,0.0,0.0,0.0,0.0,0.0,0.0,0.0,0.0,0.0,0.0,0.0,0.0,0.0,0.0,0.0,5.2234,5.0068,0.0,0.0,0.0,0.0,0.0,0.0,0.0,0.0,0.0,0.0,0.0,0.0,0.0,0.0,0.0,0.0,0.0,0.0,0.0,0.0,0.0,0.0,0.0,0.0,0.0,0.0,0.0,0.0,0.0,0.0,0.0,0.0,0.0,0.0,0.0,0.0,0.0,0.0,0.0,0.0,5.807,6.2842,6.6329,6.759,6.737,6.6806,6.5999,6.442,6.2071,5.8792,5.4766,0.0,0.0,0.0,0.0,0.0,0.0,0.0,0.0,0.0,0.0,0.0,0.0,0.0,0.0,0.0,0.0,0.0,0.0,0.0,0.0,0.0,0.0,0.0,0.0,0.0,0.0,0.0,0.0,0.0,0.0,0.0,0.0,0.0,0.0,0.0,0.0,0.0,0.0,0.0,0.0,0.0,0.0,0.0,0.0,0.0,0.0,0.0,0.0,0.0,0.0,0.0,0.0,0.0,6.0052,6.0603,6.1104,6.1104,6.1912,6.3025,5.8217,5.6701,5.7373,5.3592,0.0,0.0,0.0,0.0,0.0,0.0,0.0,0.0,0.0,0.0,0.0,0.0,0.0,0.0,0.0,0.0,0.0,0.0,0.0,0.0,0.0,0.0,5.5868,5.5868,5.7875,5.8168,5.2113,0.0,0.0,0.0,0.0,0.0,0.0,0.0,0.0,0.0,0.0,0.0,5.8902,6.3576,6.6806,6.7627,6.699,6.6219,6.5582,6.3967,6.2095,5.9955,5.6921,5.4289,0.0,0.0,0.0,0.0,0.0,0.0,0.0,0.0,0.0,0.0,0.0,0.0,0.0,0.0,0.0,0.0,0.0,0.0,0.0,0.0,0.0,0.0,0.0,0.0,0.0,0.0,0.0,0.0,0.0,0.0,0.0,0.0,4.6345,4.9242,0.0,0.0,0.0,0.0,0.0,0.0,0.0,0.0,0.0,0.0,0.0,0.0,0.0,5.8646,5.9428,6.398,6.5975,6.5411,6.8187,6.9229,6.8641,6.8641,6.9155,6.9949,6.8495,0.0,6.075,5.8143,0.0,0.0,0.0,0.0,0.0,0.0,0.0,0.0,0.0,0.0,0.0,0.0,0.0,0.0,0.0,0.0,0.0,0.0,0.0,0.0,0.0,0.0,6.1692,6.1692,6.2022,6.2059,6.1104,5.6051,5.1326,5.0068,4.8737,4.7195,0.0,0.0,0.0,0.0,0.0,0.0,5.982,6.3906,6.6806,6.7627,6.699,6.6476,6.6366,6.4861,6.3466,6.2389,5.9967,5.8095,5.7079,5.3371,0.0,0.0,0.0,0.0,0.0,0.0,0.0,0.0,0.0,0.0,0.0,0.0,0.0,0.0,0.0,0.0,0.0,0.0,0.0,0.0,0.0,0.0,0.0,0.0,0.0,0.0,0.0,0.0,0.0,4.5599,4.9309,5.0028,5.0655,4.9874,0.0,0.0,0.0,0.0,0.0,0.0,0.0,0.0,0.0,6.097,6.338,6.5031,6.5852,6.9302,7.0895,7.055,7.2408,7.3142,7.2789,7.2789,7.2995,7.3289,7.2958,7.1138,6.8031,6.3368,5.9979,5.7519,0.0,0.0,0.0,0.0,5.5233,5.5783,5.7629,5.8253,5.7886,5.5574,0.0,0.0,0.0,0.0,0.0,0.0,0.0,5.6977,5.837,6.1356,6.4128,6.473,6.584,6.6617,6.6098,6.3491,6.0141,5.6276,5.4939,5.3214,4.9334,4.9334,0.0,0.0,0.0,5.8804,6.2071,6.5241,6.7297,6.7664,6.699,6.6329,6.5852,6.4751,6.3723,6.2866,6.1361,6.0382,6.0052,5.7042,5.4252,0.0,0.0,0.0,0.0,0.0,0.0,0.0,0.0,0.0,0.0,0.0,0.0,0.0,0.0,0.0,0.0,0.0,0.0,0.0,0.0,0.0,0.0,0.0,0.0,0.0,0.0,0.0,0.0,4.9773,5.2215,5.1259,5.3628,5.3654,0.0,0.0,0.0,0.0,0.0,0.0,6.0015,6.1887,6.42,6.705,6.9288,7.0807,7.1615,7.3634,7.4625,7.4625,7.5234,7.5527,7.5527,7.5527,7.5527,7.5491,7.5307,7.4882,7.3854,6.8017,6.442,6.2316,5.993,5.8621,5.829,6.0114,6.0884,6.1435,6.387,6.4727,6.4275,6.1553,6.0348,5.9175,5.4955,0.0,0.0,0.0,0.0,6.0382,6.2188,6.4331,6.6295,6.7321,6.8936,7.012,6.9484,6.9334,6.7744,6.2306,6.0832,5.8976,5.4363,5.3997,0.0,5.517,5.8289,6.1607,6.4446,6.6753,6.811,6.811,6.7383,6.6568,6.573,6.482,6.3911,6.3039,6.2304,6.1924,6.1924,5.9979,5.7971,5.5952,0.0,0.0,0.0,0.0,0.0,0.0,0.0,0.0,0.0,0.0,0.0,0.0,0.0,0.0,0.0,0.0,0.0,0.0,0.0,0.0,0.0,0.0,0.0,0.0,0.0,0.0,0.0,0.0,0.0,5.5401,5.8779,0.0,0.0,0.0,0.0,5.8609,6.0958,6.3417,6.5925,6.8311,7.0403,7.2092,7.3729,7.4977,7.5799,7.6665,7.7142,7.7142,7.7179,7.7179,7.7179,7.7179,7.7179,7.7142,7.6387,7.6019,7.5652,7.1505,6.9265,6.8224,6.5802,6.4848,6.4811,6.4958,6.5485,6.6145,6.6329,6.6366,6.6557,6.7603,6.5747,6.2885,6.1835,6.0471,0.0,0.0,6.2249,6.4557,6.6182,6.7899,6.9388,7.0215,7.1065,7.1711,7.1635,7.1635,7.0685,6.7528,6.5237,6.3258,6.1386,0.0,6.0729,6.0804,6.2774,6.4851,6.6539,6.8196,6.9221,6.9221,6.8497,6.7668,6.6781,6.5577,6.4476,6.3613,6.3024,6.2756,6.2756,6.1887,5.9942,5.6811,5.4242,0.0,0.0,0.0,0.0,0.0,0.0,0.0,0.0,0.0,0.0,0.0,0.0,0.0,0.0,0.0,0.0,0.0,0.0,0.0,0.0,0.0,0.0,0.0,0.0,0.0,0.0,0.0,0.0,6.0199,6.3356,0.0,6.0187,6.1288,6.2719,6.3833,6.6145,6.8568,7.0991,7.2459,7.3927,7.5527,7.6151,7.6592,7.6885,7.7179,7.7289,7.7289,7.7289,7.7289,7.7289,7.7289,7.7289,7.7289,7.6995,7.7113,7.7367,7.5429,7.355,7.1892,7.0898,7.0498,7.0511,7.0364,7.0851,7.1352,7.0267,7.0255,7.0635,7.0441,6.8584,6.6465,6.6467,6.5685,6.5047,6.6463,6.7329,6.828,7.008,7.0637,7.0811,7.1247,7.2279,7.3165,7.3165,7.3574,7.3593,7.2517,7.0131,6.7604,6.5436,6.4953,6.4696,6.4151,6.5228,6.6626,6.8238,6.8935,6.9302,6.9302,6.9048,6.853,6.771,6.6711,6.5537,6.4212,6.3409,6.2751,6.217,6.1881,6.0957,5.9295,5.6884,5.3185,0.0,0.0,0.0,0.0,0.0,0.0,0.0,0.0,0.0,0.0,0.0,0.0,0.0,0.0,0.0,0.0,0.0,0.0,0.0,0.0,0.0,0.0,0.0,0.0,0.0,6.0089,6.3649,6.3637,6.7247,6.8361,6.4787,6.6696,6.8458,6.9265,7.1064,7.2936,7.4808,7.5417,7.6188,7.7289,7.7289,7.7289,7.7289,7.7289,7.7289,7.7289,7.7289,7.7289,7.7289,7.7289,7.7441,7.7659,7.7659,7.7993,7.8552,7.8041,7.6924,7.551,7.4811,7.4545,7.453,7.4378,7.4708,7.4951,7.3554,7.3168,7.3209,7.2476,7.1017,6.9611,6.9924,6.9613,6.9383,7.0547,7.0913,7.1259,7.2577,7.2696,7.2545,7.2753,7.3724,7.4626,7.4626,7.5039,7.5413,7.5413,7.3251,7.0894,6.9309,6.8916,6.8535,6.7748,6.8244,6.8961,6.9753,6.9829,6.9829,6.9829,6.9829,6.9411,6.828,6.7255,6.5942,6.4314,6.3236,6.24,6.1816,6.1403,6.0802,5.9947,5.7305,5.4552,5.1689,0.0,0.0,0.0,0.0,0.0,0.0,0.0,0.0,0.0,0.0,0.0,0.0,0.0,0.0,0.0,0.0,0.0,0.0,0.0,0.0,0.0,0.0,0.0,5.9526,6.4273,6.7297,6.5765,7.0477,7.229,6.8398,7.1519,7.4147,7.4903,7.5689,7.6497,7.7252,7.7289,7.7289,7.7289,7.7326,7.7326,7.7289,7.7326,7.7326,7.7289,7.7289,7.7304,7.732,7.732,7.7695,7.8336,7.8336,7.8666,7.9233,7.9233,7.9244,7.9116,7.7515,7.6921,7.6883,7.6905,7.6868,7.6716,7.5863,7.4861,7.4003,7.3964,7.319,7.229,7.229,7.2252,7.2252,7.229,7.286,7.3507,7.3546,7.4123,7.47,7.4738,7.5399,7.6015,7.6015,7.6015,7.6015,7.6015,7.4424,7.3074,7.3074,7.2871,7.238,7.157,7.1896,0.0,7.1014,7.0898,7.0898,7.0898,7.0898,7.0244,6.8584,6.7186,6.5687,6.3924,6.2551,6.1824,6.1824,6.0628,5.9594,5.8831,5.5716,5.4329,5.4761,0.0,0.0,0.0,0.0,0.0,0.0,0.0,0.0,0.0,0.0,0.0,0.0,0.0,0.0,0.0,0.0,0.0,0.0,0.0,0.0,0.0,6.1998,6.5411,6.4604,6.8348,7.1468,7.2151,7.4647,7.5894,7.4757,7.5674,7.6408,7.6628,7.6848,7.7069,7.7289,7.7289,7.7289,7.7289,7.7913,7.7949,7.7326,7.7913,7.7913,7.7289,7.7289,7.7555,7.803,7.803,7.8365,7.8938,7.8938,7.929,7.9868,7.9868,8.0134,8.0508,7.9571,7.9193,7.9167,7.9041,7.856,7.7909,7.7105,7.6605,7.6278,7.5618,7.4773,7.4014,7.4014,7.363,7.3238,7.386,7.3776,7.3776,7.5014,7.5007,7.4861,7.5476,7.5822,7.6015,7.6015,7.6015,7.6015,7.6015,7.5534,7.5182,7.5182,7.4588,7.3852,7.3046,7.2527,7.1905,7.1014,7.0898,7.0898,7.0898,7.0898,7.0475,6.9436,6.785,6.6175,6.448,6.289,6.2031,6.2031,6.1673,6.1394,6.1172,5.9451,5.8302,0.0,0.0,0.0,0.0,0.0,0.0,0.0,0.0,0.0,0.0,0.0,0.0,0.0,0.0,0.0,0.0,0.0,0.0,0.0,0.0,0.0,0.0,6.6953,7.0307,7.0477,7.2532,7.4478,7.5747,7.6738,7.7289,7.7289,7.7289,7.7289,7.7289,7.7289,7.7472,7.7839,7.7839,7.7986,7.8332,7.8846,7.8846,7.8369,7.9126,7.9069,7.8204,7.8512,7.8661,7.8678,7.8678,7.8998,7.9567,7.9567,7.9929,8.0508,8.0508,8.075,8.1069,0.0,0.0,0.0,0.0,7.9785,7.8977,7.8515,7.79,7.7215,7.6707,7.5707,7.47,7.47,7.4353,7.4084,7.4584,7.463,7.4784,7.5745,7.563,7.5361,7.5861,7.6015,7.6015,7.6015,7.6015,7.6015,7.6015,7.6015,0.0,7.6015,7.5592,7.4969,7.4123,7.3283,7.2437,7.1552,7.1129,7.0898,7.0898,7.0898,7.0552,6.9783,6.809,0.0,0.0,0.0,6.2348,6.1838,6.2138,0.0,0.0,0.0,0.0,0.0,0.0,0.0,0.0,6.2444,6.2894,0.0,0.0,0.0,0.0,0.0,0.0,0.0,0.0,0.0,0.0,0.0,0.0,0.0,0.0,0.0,0.0,7.1482,7.4478,7.6019,7.624,7.6481,7.7215,7.7289,7.7289,7.7289,7.7289,7.7289,7.7289,7.7399,7.7812,7.8655,7.8781,0.0,0.0,0.0,8.0097,8.0023,8.0674,8.0583,7.9749,8.0354,8.0211,7.9464,7.9464,7.9735,8.0201,8.0201,8.0535,8.1093,8.1093,8.1093,8.1093,8.1093,8.1093,8.1093,8.1093,8.0592,7.9931,7.9815,0.0,0.0,7.7369,7.6245,7.4976,7.4892,7.4853,7.4853,7.4853,7.5399,7.6015,7.6015,7.6015,7.6015,7.6015,7.6015,7.6015,7.613,7.6053,7.6015,7.613,7.6053,7.6015,7.6015,7.6015,7.5707,7.4815,7.4084,7.3315,7.2476,7.1668,7.1168,7.1052,7.1052,0.0,6.9783,6.8205,6.6904,6.6096,6.4666,6.3354,6.2225,6.3219,6.3685,6.3487,6.5214,6.7007,6.8814,7.1283,7.2598,7.2622,6.6566,6.6352,0.0,0.0,0.0,0.0,0.0,0.0,0.0,0.0,0.0,0.0,0.0,0.0,0.0,0.0,0.0,7.0881,7.3854,7.5983,7.6922,7.7069,7.7142,7.7289,7.7289,7.7289,7.7289,7.7289,7.7289,7.7289,7.7949,7.8638,7.9293,8.0004,8.0692,8.1294,8.1946,8.1983,8.1345,8.2109,8.2058,8.128,8.1412,0.0,8.0977,8.0977,8.0946,8.0888,8.0888,8.0975,8.1093,8.1093,8.1093,8.1093,8.1093,8.1093,8.1093,8.1093,8.0977,8.0746,8.0046,7.9585,7.9092,7.7746,7.7061,7.6669,7.5976,7.5745,0.0,7.5745,7.5861,7.6015,7.6015,7.6015,7.6015,7.6015,7.6015,7.6207,7.6899,7.6515,7.6207,7.6899,7.6476,7.6015,7.6015,7.6015,7.5707,7.4815,7.4584,7.4161,7.3353,7.3084,7.2745,7.2014,7.1944,7.1321,6.9821,6.8744,6.7782,6.6904,6.7205,6.7288,6.7043,6.9163,6.9739,6.8349,7.0693,7.1766,7.1482,7.3322,7.4938,7.6284,7.4258,7.3883,0.0,0.0,0.0,0.0,0.0,0.0,0.0,0.0,0.0,0.0,0.0,6.0456,6.4494,0.0,7.055,7.378,7.5637,7.6848,7.7252,7.7289,7.7289,7.7289,7.7289,7.7289,7.7289,7.7289,7.7619,7.8329,7.8816,7.9679,8.1129,8.1605,8.2172,8.292,8.3335,8.3373,8.297,8.3642,8.3611,8.2825,8.315,8.2798,8.1843,8.1843,8.1581,8.1093,8.1093,8.1093,8.1093,8.1093,8.1093,8.1093,8.1093,8.1093,8.1093,8.1093,8.1093,8.1054,8.0592,8.0162,7.9662,7.8823,7.7977,7.7215,7.6784,7.6361,7.6015,7.6015,7.6015,7.6015,7.6015,7.6322,7.663,7.663,7.6938,7.7253,7.7292,7.6938,7.663,7.663,7.6284,7.6015,7.6015,7.6015,7.5861,7.5438,7.4976,7.4546,7.4161,7.3738,7.3315,7.2899,7.2476,7.2052,7.1629,7.0821,6.9937,6.9052,6.9398,6.9667,6.9667,7.1706,7.2245,7.0975,7.3899,7.4976,7.4091,7.6207,7.7707,7.8554,7.8554,7.8323,0.0,0.0,0.0,0.0,0.0,0.0,0.0,5.5537,5.6884,6.1545,6.3783,6.6132,7.0073,7.2129,7.3934,7.6155,7.7053,7.754,7.7666,7.768,7.768,7.768,7.7585,7.748,7.748,7.774,7.8413,7.9605,7.9981,8.1043,8.2999,8.3223,8.3724,8.456,8.456,8.456,8.456,8.5058,8.4967,8.4327,8.4878,8.4247,8.2554,8.2554,8.2016,8.1093,8.1093,8.1093,8.1093,8.1093,8.1093,8.1093,8.1093,8.1093,8.1093,8.1093,8.1093,8.1093,8.1093,8.0631,8.0015,7.9854,7.89,7.7715,7.7407,7.683,7.6245,7.6245,7.613,7.6053,7.6207,7.6784,7.7253,7.7099,7.7676,7.8099,7.7445,7.7292,7.7099,7.6399,7.6245,7.6207,7.6015,7.6015,7.6015,7.6015,7.5399,7.493,7.493,7.4392,7.393,7.3738,7.3091,7.2899,7.343,7.286,7.2129,7.1437,7.1552,7.1706,7.186,7.3399,7.3976,7.3444,7.6291,7.7438,7.6746,7.8977,8.0046,8.0092,8.0785,8.0708,4.9554,5.1159,5.3214,5.6198,5.5978,5.7347,0.0,6.5925,6.5105,6.9215,7.1358,7.2657,7.3208,7.4625,7.6221,7.7779,7.815,7.8379,7.8901,7.8986,7.8986,7.8986,7.8499,7.8187,7.8187,7.9378,8.0225,8.0372,8.1692,8.2883,8.3742,8.4466,8.5176,8.5884,8.5902,8.5902,8.5902,8.5954,8.5941,8.5864,8.5915,8.5093,8.3447,8.3447,8.2593,8.1093,8.1093,8.1093,8.1093,8.1093,8.1093,8.1093,8.1093,8.1093,8.1093,8.1093,8.1093,8.1093,8.1093,8.1054,8.0823,8.0046,7.9669,7.9246,7.7746,7.7215,7.7138,7.7138,7.6592,7.6169,7.6938,7.7215,7.7099,7.6322,7.683,7.7407,7.733,7.7292,7.7292,7.7176,7.7138,7.6899,7.613,7.6015,7.6015,7.6015,7.5938,7.5861,7.5861,7.5784,7.5438,7.4661,7.4469,7.4161,7.3546,7.3392,7.3315,7.3238,7.3892,7.4623,7.5399,7.6361,7.7176,7.7792,7.8938,7.9469,7.9392,8.0439,8.0939,8.0977,8.1054,8.1054,5.4866,5.6517,5.807,6.086,6.2438,6.453,6.9082,6.9412,6.9655,7.2775,7.4294,7.5249,7.5711,7.6662,7.758,7.818,7.8576,7.8901,7.9163,7.9198,7.901,7.8508,7.8976,7.9198,7.8878,7.9823,8.0867,8.174,8.2825,8.3981,8.5107,8.55,8.5811,8.6085,8.6094,8.6094,8.6094,8.6094,8.6094,8.6094,8.6094,8.5478,8.4362,8.4362,8.3439,8.1785,8.1285,8.1093,8.1093,8.1093,8.1093,8.1093,8.1093,8.1093,8.1093,8.1093,8.1093,8.1093,8.1093,8.1093,8.1054,8.0669,8.0208,7.9669,7.8977,7.84,7.7984,7.7984,7.7753,7.7445,7.733,7.8015,7.8554,7.7676,7.8523,7.9361,7.8861,7.8746,7.8477,7.7484,7.7676,7.7561,7.6245,7.6399,7.6592,7.6092,7.6015,7.6015,7.6015,7.6015,7.5668,7.4776,7.5168,7.513,7.4276,7.4661,7.4938,7.4938,7.5284,7.5861,7.6707,7.7561,7.8176,7.8484,7.9862,8.0323,7.9815,8.0669,8.1093,8.1093,8.1093,8.1093,5.7802,5.993,6.1998,6.447,6.7504,7.0202,7.1416,7.2305,7.3504,7.5671,7.6565,7.7143,7.7721,7.8204,7.8589,7.8766,7.9163,7.9502,7.9701,7.9533,7.9143,7.8487,7.9142,7.9572,7.9385,8.0351,8.1555,8.2856,8.3725,8.4755,8.6038,8.6094,8.6094,8.6094,8.6094,8.6094,8.6094,8.6094,8.6094,8.6094,8.6094,8.567,8.4893,8.4401,8.3362,8.1939,8.1362,8.1093,8.1093,8.1093,8.1093,8.1093,8.1093,8.1093,8.1093,8.1093,8.1093,8.1093,8.1093,8.1093,8.1093,8.1093,8.0669,8.0123,7.9854,7.9361,7.8869,7.8869,7.8677,7.8407,7.8092,7.89,7.9592,7.8715,7.9631,8.0516,7.9631,7.9631,7.9361,7.7907,7.8292,7.8407,7.6938,7.7022,7.7099,7.6438,7.613,7.6015,7.6015,7.6015,7.5745,7.5123,7.563,7.5745,7.513,7.5861,7.6361,7.6361,7.6553,7.7092,7.7938,7.8554,7.8984,7.9215,8.0477,8.0785,8.0162,8.0785,8.1093,8.1093,8.1093,8.1093,5.7031,6.0346,6.458,6.7003,7.0,7.2989,7.5209,7.6334,7.735,7.8758,7.9076,7.9114,7.9152,7.9163,7.9369,7.9949,8.0048,8.0306,8.0959,8.0323,7.9784,7.9738,7.9031,7.8877,7.9708,8.1284,8.2599,8.35,8.4385,8.5231,8.6047,8.6094,8.6094,8.6094,8.6094,8.6094,8.6094,8.6094,8.6094,8.6094,8.6094,8.567,8.4854,8.3131,8.19,8.1131,8.1093,8.1093,8.1093,8.1093,8.1093,8.1093,8.1093,8.1093,8.1093,8.1093,8.1093,8.1093,8.1093,8.1093,8.1093,8.1093,8.1093,8.09,8.0046,7.9777,7.9738,7.9738,7.9131,7.8677,7.9515,7.9738,7.9592,7.8715,7.9208,7.9592,7.8715,7.9208,7.9554,7.8638,7.9169,7.9477,7.86,7.7792,7.7292,7.7253,7.6553,7.6015,7.6015,7.6015,7.5976,7.5976,7.5976,7.5976,7.5976,7.6746,7.7253,7.7253,7.7984,7.8823,7.97,7.9738,8.0169,8.1016,8.1054,8.1093,8.1054,8.1093,8.1093,8.1093,8.1093,8.1093,6.1618,6.5103,6.8581,7.1537,7.4225,7.6505,7.7801,7.83,7.8461,7.8348,7.7919,7.7342,7.6802,7.7019,7.7528,7.8323,7.9248,8.0194,8.0992,8.0862,8.0246,7.9054,7.9708,7.99,7.9015,8.0477,8.1862,8.267,8.4093,8.5008,8.5286,8.5824,8.6094,8.6094,8.6094,8.6094,8.6094,8.6094,8.6094,8.6094,8.6094,8.5978,8.5662,8.4555,8.3555,8.2716,8.2131,8.1593,8.1093,8.1093,8.1093,8.1093,8.1093,8.1093,8.1093,8.1093,8.1093,8.1093,8.1093,8.1093,8.1093,8.1093,8.1093,8.1054,8.0746,8.0669,8.0669,8.0669,8.0439,8.0169,7.9854,8.0239,8.0439,7.9554,8.0015,8.0592,8.0285,8.0477,8.04,7.9515,8.0054,8.0208,7.8754,7.8746,7.8746,7.8176,7.6899,7.6015,7.6015,7.6015,7.6015,7.6015,7.6515,7.6868,7.6868,7.7638,7.8099,7.8099,7.8369,7.89,7.9738,7.9815,8.0208,8.1093,8.1093,8.1093,8.1093,8.1093,8.1093,8.1093,8.1093,8.1093,6.5644,6.8922,7.1805,7.4995,7.7121,7.8625,7.9356,7.9297,7.8809,7.7896,7.6776,7.5616,7.4466,7.4319,7.4966,7.6735,7.7836,7.9054,8.0862,8.0823,8.0208,7.9092,7.9669,7.9862,7.9054,7.9977,8.1093,8.2208,8.3632,8.4555,8.4893,8.5662,8.6094,8.6094,8.6094,8.6094,8.6094,8.6094,8.6094,8.6094,8.6094,8.594,8.5662,8.5124,8.4439,8.3563,8.267,8.2016,8.1516,8.1208,8.1093,8.1093,8.1093,8.1093,8.1093,8.1093,8.1093,8.1093,8.1093,8.1093,8.1093,8.1093,8.1093,8.1093,8.1093,8.1093,8.1093,8.1093,8.1093,8.0977,8.04,8.0669,8.0977,8.04,8.0708,8.1093,8.1093,8.1093,8.0939,8.0362,8.0708,8.0746,7.9631,7.9631,7.9515,7.8638,7.7599,7.6899,7.6899,7.663,7.6476,7.6476,7.6669,7.6938,7.7292,7.8023,7.8638,7.8938,7.9254,7.9669,8.0246,8.0246,8.0516,8.1093,8.1093,8.1093,8.1093,8.1093,8.1093,8.1093,8.1093,8.1093,6.8958,7.1733,7.4237,7.7326,7.8674,7.9371,7.9894,7.9314,7.8346,7.7209,7.5553,7.3822,7.2136,7.1283,7.1937,7.5245,7.5976,7.7284,8.0631,8.0439,7.9892,7.9854,7.9208,7.9054,7.9862,7.9969,8.0669,8.2247,8.3139,8.3978,8.4854,8.5662,8.6094,8.6094,8.6094,8.6094,8.6094,8.6094,8.6094,8.6094,8.6094,8.5709,8.497,8.497,8.4478,8.364,8.2747,8.2324,8.2247,8.1439,8.1093,8.1093,8.1093,8.1093,8.1093,8.1093,8.1093,8.1093,8.1093,8.1093,8.1093,8.1093,8.1093,8.1093,8.1093,8.1093,8.1093,8.1093,8.1093,8.1093,8.1093,8.1093,8.1093,8.1093,8.1093,8.1093,8.1093,8.1093,8.1093,8.1093,8.1093,8.1093,8.1093,8.0416,7.9584,7.8784,7.8644,7.8606,7.853,7.7807,7.7321,7.7321,7.6604,7.6503,7.7312,7.8159,7.8998,7.9815,8.0662,8.1116,8.1093,8.1093,8.1093,8.1093,8.1093,8.1093,8.1093,8.1093,8.1093,8.1093,8.1093,8.1093,7.2273,7.5281,7.7779,7.9213,7.96,7.9514,7.9018,7.7277,7.515,7.2993,7.0667,6.8513,6.6859,6.8436,7.0706,7.2822,7.583,7.8638,8.0785,8.1439,8.1439,8.0823,8.167,8.2139,8.1708,8.2247,8.2824,8.3255,8.3486,8.3978,8.4854,8.5662,8.6094,8.6094,8.6094,8.6094,8.6094,8.6094,8.6094,8.6094,8.6094,8.5978,8.5786,8.5786,8.5363,8.4516,8.3632,8.2909,8.2247,8.1439,8.1093,8.1093,8.1093,8.1093,8.1093,8.1093,8.1093,8.1093,8.1093,8.1093,8.1093,8.1093,8.1093,8.1093,8.1093,8.1093,8.1093,8.1093,8.1093,8.1093,8.1093,8.1093,8.1093,8.1093,8.1093,8.1093,8.1093,8.1093,8.1093,8.1093,8.1093,8.1093,8.1093,8.1028,8.0937,8.0705,8.0794,8.0312,7.872,7.7909,7.7522,7.7522,7.8008,7.8398,7.8631,8.0034,8.0919,8.0988,8.1208,8.1244,8.1108,8.1093,8.1093,8.1093,8.1093,8.1093,8.1093,8.1093,8.1093,8.1093,8.1093,8.1093,7.5486,7.8065,7.9969,8.0411,7.9871,7.8823,7.7207,7.4861,7.1975,6.8321,6.6167,6.4172,6.171,6.4051,6.7135,6.9559,7.3514,7.7284,8.0131,8.1554,8.2131,8.167,8.2793,8.3409,8.2901,8.3332,8.3755,8.4132,8.417,8.4362,8.4854,8.5662,8.6094,8.6094,8.6094,8.6094,8.6094,8.6094,8.6094,8.6094,8.6094,8.6094,8.6094,8.6094,8.5729,8.4964,8.4122,8.3287,8.2541,8.1695,8.1353,8.1353,8.1353,8.1353,8.1353,8.1353,8.1353,8.1353,8.1353,8.1353,8.1343,8.1168,8.1093,8.1093,8.1093,8.1093,8.1093,8.1093,8.1093,8.1093,8.1093,8.1093,8.1093,8.1093,8.1093,8.1093,8.1093,8.1093,8.1093,8.1093,8.1093,8.1116,8.1207,8.1324,8.1414,8.1504,8.1645,8.1286,8.0051,7.8944,7.8098,7.7744,7.8223,7.8726,7.9077,8.0361,8.1247,8.1495,8.1524,8.1491,8.1359,8.1353,8.1353,8.1353,8.1353,8.1353,8.1353,8.1353,8.1353,8.1353,8.1353,8.1353,7.8399,8.0132,8.1054,8.0977,7.9438,7.733,7.4784,7.1783,6.8244,6.3583,6.1704,6.0056,5.717,5.9561,6.3095,6.6673,7.086,7.5123,7.9392,8.1439,8.2477,8.2477,8.3332,8.3947,8.3947,8.3947,8.4247,8.5016,8.517,8.5162,8.5085,8.5701,8.6094,8.6094,8.6094,8.6094,8.6094,8.6094,8.6094,8.6094,8.6151,8.6137,8.6145,8.6076,8.5738,8.5206,8.4198,8.3493,8.2913,8.2069,8.1684,8.1684,8.1684,8.1684,8.1684,8.1684,8.1684,8.1684,8.1684,8.1684,8.1623,8.1311,8.1174,8.1174,8.1174,8.1174,8.1174,8.1174,8.1174,8.1174,8.1174,8.1174,8.1174,8.1174,8.1174,8.1174,8.1174,8.1174,8.1174,8.1174,8.1174,8.1242,8.1424,8.1464,8.1529,8.1695,8.1746,8.1721,8.1604,8.0259,7.9031,7.8288,7.8241,7.8572,7.9306,8.0166,8.0977,8.1686,8.1721,8.171,8.1684,8.1684,8.1684,8.1684,8.1684,8.1684,8.1684,8.1684,8.1684,8.1684,8.1684,8.1684,8.0166,8.0922,8.0939,8.0208,7.7661,7.4707,7.2129,6.6898,6.1897,5.9627,5.6819,5.478,5.4895,5.8286,6.2589,6.7398,7.1738,7.5976,8.0285,8.2324,8.337,8.337,8.4747,8.567,8.567,8.567,8.5747,8.5901,8.6555,8.6632,8.594,8.6017,8.6094,8.6094,8.6094,8.6094,8.6094,8.6094,8.6094,8.6094,8.6317,8.6429,8.6397,8.5879,8.5539,8.5343,8.3826,8.3109,8.2913,8.2069,8.1684,8.1684,8.1684,8.1684,8.1684,8.1684,8.1684,8.1684,8.1684,8.1684,8.1672,8.1632,8.1605,8.1605,8.1605,8.1605,8.1605,8.1605,8.1605,8.1605,8.1605,8.1605,8.1605,8.1605,8.1605,8.1605,8.1605,8.1605,8.1605,8.1605,8.1605,8.1618,8.1619,8.1802,8.1897,8.196,8.2071,8.1943,8.1201,8.0727,8.0361,8.0205,8.0356,8.0538,8.0655,8.1475,8.1966,8.1969,8.1962,8.1873,8.1692,8.1684,8.1684,8.1684,8.1684,8.1684,8.1684,8.1684,8.1684,8.1684,8.1684,8.1684,8.0653,8.1093,8.09,8.0015,7.6892,7.3046,6.9167,6.3743,5.8627,5.5582,5.3659,5.2505,5.2515,5.5978,5.9902,6.3237,6.7359,7.1898,7.7053,7.9592,8.1601,8.3409,8.5093,8.6286,8.6748,8.6786,8.6786,8.6786,8.7594,8.7517,8.617,8.6094,8.6094,8.6094,8.6094,8.616,8.6296,8.6296,8.6356,8.646,8.6572,8.6674,8.6641,8.5862,8.535,8.4971,8.3681,8.295,8.2618,8.2193,8.2,8.2,8.2,8.2,8.2,8.2,8.2,8.2,8.2,8.2,8.2,8.2,8.1873,8.1684,8.1684,8.1684,8.1684,8.1684,8.1684,8.1684,8.1684,8.1684,8.1684,8.1684,8.1684,8.1684,8.1684,8.1684,8.1684,8.1684,8.1684,8.1718,8.1847,8.1955,8.2048,8.2126,8.2223,8.2148,8.1719,8.1595,8.1192,8.0294,8.0661,8.1015,8.1015,8.1797,8.2264,8.2171,8.2169,8.2118,8.2001,8.2,8.2,8.2,8.2,8.2,8.2,8.2,8.2,8.2,8.2,8.2273,8.0467,8.0977,8.0862,7.9785,7.62,7.1661,6.6744,6.1243,5.6159,5.2428,5.1197,5.0813,5.0707,5.3554,5.6824,5.9588,6.3205,6.7821,7.4091,7.7169,7.9985,8.3216,8.5093,8.644,8.7325,8.7401,8.7478,8.7671,8.834,8.8163,8.6709,8.653,8.6423,8.6423,8.6315,8.6349,8.6576,8.6543,8.6659,8.6817,8.6826,8.6844,8.6844,8.6026,8.5289,8.4634,8.3736,8.2948,8.2304,8.2304,8.2304,8.2304,8.2304,8.2304,8.2304,8.2304,8.2304,8.2304,8.2304,8.2304,8.2304,8.2304,8.211,8.184,8.184,8.184,8.184,8.184,8.184,8.184,8.184,8.184,8.184,8.184,8.184,8.184,8.184,8.184,8.184,8.184,8.184,8.1878,8.2049,8.2061,8.2119,8.2265,8.2304,8.2304,8.2304,8.2304,8.1797,8.039,8.0859,8.1289,8.1289,8.1914,8.2304,8.2304,8.2304,8.2304,8.2304,8.2304,8.2304,8.2304,8.2304,8.2304,8.2304,8.2304,8.2304,8.2304,8.25,8.2969,7.9654,8.0516,8.0708,7.9023,7.4861,7.0014,6.5705,5.8973,5.3126,5.1207,4.8971,4.8043,5.0284,5.1625,5.4467,6.0825,6.3474,6.7321,7.4822,7.8054,8.0669,8.3293,8.5093,8.644,8.7325,8.7401,8.7709,8.8526,8.8811,8.8815,8.8466,8.7876,8.7552,8.7552,8.7013,8.6761,8.6783,8.6787,8.6796,8.6817,8.6989,8.7089,8.7052,8.6428,8.5662,8.4804,8.3944,8.3085,8.2304,8.2304,8.2304,8.2304,8.2304,8.2304,8.2304,8.2304,8.2304,8.2304,8.2304,8.2304,8.2304,8.2304,8.2265,8.2224,8.2224,8.2224,8.2224,8.2224,8.2224,8.2224,8.2224,8.2224,8.2224,8.2224,8.2224,8.2224,8.2224,8.2224,8.2224,8.2224,8.2224,8.2263,8.2265,8.2265,8.2265,8.2304,8.2304,8.2304,8.2304,8.2304,8.2226,8.207,8.2148,8.2187,8.2187,8.2265,8.2304,8.2304,8.2304,8.2304,8.2304,8.2304,8.2304,8.2304,8.2304,8.2304,8.2304,8.2304,8.2304,8.2304,8.3125,8.3515,7.7784,7.89,7.9138,7.74,7.3553,6.8936,6.4172,5.7973,5.2702,5.1053,4.8663,4.7697,5.0245,5.051,5.2125,5.7401,5.8825,6.1743,6.8898,7.2129,7.5399,7.9985,8.2477,8.4747,8.7171,8.7863,8.8788,9.0271,9.0122,8.9936,8.9839,8.8633,8.7686,8.7171,8.6921,8.6876,8.6986,8.6986,8.7068,8.7214,8.7282,8.733,8.7292,8.6014,8.5234,8.4804,8.3437,8.2617,8.2304,8.2304,8.2304,8.2304,8.2304,8.2304,8.2304,8.2304,8.2304,8.2304,8.2304,8.2304,8.2304,8.2304,8.2304,8.2304,8.2304,8.2304,8.2304,8.2304,8.2304,8.2304,8.2304,8.2304,8.2304,8.2304,8.2304,8.2304,8.2304,8.2304,8.2304,8.2304,8.2304,8.2304,8.2304,8.2304,8.2304,8.2304,8.2304,8.2304,8.2304,8.2304,8.2304,8.2304,8.2304,8.2304,8.2304,8.2304,8.2304,8.2304,8.2304,8.2304,8.2304,8.2304,8.2304,8.2304,8.2304,8.2304,8.2304,8.2812,8.3086,8.3086,8.3984,8.4648,7.5099,7.6753,7.7361,7.5668,7.2245,6.7975,6.2864,5.728,5.2664,5.0707,4.8509,4.7582,4.9899,4.9822,5.0702,5.4708,5.5747,5.8478,6.5288,6.8436,7.2052,7.7484,8.0169,8.284,8.6038,8.8134,8.9929,9.1486,9.1071,9.0609,9.0368,8.9024,8.7978,8.7298,8.7114,8.7073,8.7223,8.7225,8.7326,8.75,8.7226,8.7109,8.707,8.5586,8.4765,8.4453,8.3203,8.2539,8.2304,8.2304,8.2304,8.2304,8.2304,8.2304,8.2304,8.2304,8.2304,8.2304,8.2304,8.2304,8.2304,8.2304,8.2304,8.2304,8.2304,8.2304,8.2304,8.2304,8.2304,8.2304,8.2304,8.2304,8.2304,8.2304,8.2304,8.2304,8.2304,8.2304,8.2304,8.2304,8.2304,8.2304,8.2304,8.2304,8.2304,8.2304,8.2304,8.2304,8.2304,8.2304,8.2304,8.2304,8.2304,8.2304,8.2304,8.2304,8.2304,8.2304,8.2304,8.2304,8.2304,8.2304,8.2304,8.2304,8.2539,8.2695,8.2695,8.3554,8.3984,8.4023,8.4883,8.5742,7.1552,7.4091,7.563,7.393,7.0968,6.7083,6.1973,5.6857,5.2472,4.9933,4.8086,4.7428,4.9086,4.9394,5.051,5.3972,5.5901,5.9363,6.6134,6.9283,7.2476,7.6791,7.8784,8.0911,8.3674,8.7958,9.0933,9.1836,9.1356,9.0612,8.9754,8.905,8.8584,8.8388,8.78,8.75,8.75,8.75,8.75,8.75,8.664,8.6211,8.6172,8.5312,8.4414,8.3594,8.3594,8.3086,8.2304,8.2304,8.2304,8.2304,8.2304,8.2304,8.2304,8.2304,8.2304,8.2304,8.2304,8.2304,8.2304,8.2304,8.2304,8.2304,8.2304,8.2304,8.2304,8.2304,8.2304,8.2304,8.2304,8.2304,8.2304,8.2304,8.2304,8.2304,8.2304,8.2304,8.2304,8.2304,8.2304,8.2304,8.2304,8.2304,8.2304,8.2304,8.2304,8.2304,8.2304,8.2304,8.2304,8.2304,8.2304,8.2304,8.2304,8.2304,8.2304,8.2304,8.2304,8.2304,8.2304,8.2304,8.2304,8.2304,8.3164,8.3594,8.3594,8.4453,8.4883,8.4922,8.5781,8.664,6.4211,6.6712,6.8398,6.5551,6.4012,6.2166,5.8204,5.5164,5.2664,5.0707,4.8933,4.824,4.9976,4.9784,5.1279,5.6973,5.8357,6.0671,6.6327,6.9828,7.297,7.624,8.132,8.5144,8.6622,8.8194,8.9693,9.1175,9.07,9.0186,8.9913,8.9139,8.8436,8.7803,8.7616,8.75,8.75,8.75,8.75,8.75,8.6601,8.6211,8.6133,8.4687,8.3867,8.3554,8.2969,8.2539,8.2304,8.2304,8.2304,8.2304,8.2304,8.2304,8.2304,8.2304,8.2304,8.2304,8.2304,8.2304,8.2304,8.2304,8.2304,8.2304,8.2304,8.2304,8.2304,8.2304,8.2304,8.2304,8.2304,8.2304,8.2304,8.2304,8.2304,8.2304,8.2304,8.2304,8.2304,8.2304,8.2304,8.2304,8.2304,8.2304,8.2304,8.2304,8.2304,8.2304,8.2304,8.2304,8.2304,8.2304,8.2304,8.2304,8.2304,8.2304,8.2304,8.2304,8.2304,8.2304,8.2304,8.2304,8.2304,8.2304,8.2578,8.3008,8.3594,8.4453,8.5508,8.6679,8.6953,8.7226,5.844,6.1133,6.2897,6.0473,5.9594,5.8632,5.5901,5.3433,5.1471,5.0438,4.9086,4.8548,4.9938,5.0014,5.1471,5.6319,5.7665,5.9986,6.5517,6.8924,7.2495,7.6861,8.217,8.5965,8.7166,8.8002,8.9109,9.0513,8.9917,8.9492,8.9492,8.8711,8.8008,8.7539,8.75,8.75,8.75,8.75,8.75,8.75,8.6289,8.5703,8.5664,8.3906,8.3125,8.3086,8.2539,8.2304,0.0,8.2304,8.2304,8.2304,8.2304,8.2304,8.2304,8.2304,8.2304,8.2304,8.2304,8.2304,8.2304,8.2304,8.2304,8.2304,8.2304,8.2304,8.2304,8.2304,8.2304,8.2304,8.2304,8.2304,8.2304,8.2304,8.2304,8.2304,8.2304,8.2304,8.2304,8.2304,8.2304,8.2304,8.2304,8.2304,8.2304,8.2304,8.2304,8.2304,8.2304,8.2304,8.2304,8.2304,8.2304,8.2304,8.2304,8.2304,8.2304,8.2304,8.2304,8.2304,8.2304,8.2304,8.2304,8.2304,8.2617,8.3203,8.4101,8.5312,8.6445,8.75,8.75,8.75,0.0,5.6896,5.8665,5.7736,5.6973,5.6055,5.4395,5.1625,0.0,4.9317,4.8702,4.8509,4.9471,5.0284,5.1476,5.3587,5.5203,5.8377,6.4476,6.7799,7.2056,7.8759,8.1958,8.4245,8.5841,8.7608,8.8984,8.9844,8.9101,8.8633,8.8711,8.7929,8.75,8.75,8.75,8.75,8.75,8.75,8.75,8.7461,8.5742,8.4883,8.4844,8.3086,8.2304,8.2304,8.2304,8.2304,8.2304,8.2304,8.2304,8.2304,8.2304,8.2304,8.2304,8.2304,8.2304,8.2304,8.2304,8.2304,8.2304,8.2304,8.2304,8.2304,8.2304,8.2304,8.2304,8.2304,8.2304,8.2304,8.2304,8.2304,8.2304,8.2304,8.2304,8.2304,8.2304,8.2304,8.2304,8.2304,8.2304,8.2304,8.2304,8.2304,8.2304,8.2304,8.2304,8.2304,8.2304,8.2304,8.2304,8.2304,8.2304,8.2304,8.2304,8.2304,8.2304,8.2304,8.2304,8.2304,8.2304,8.2304,8.2304,8.2304,8.3203,8.4101,8.4883,8.664,8.75,8.75,8.75,8.75,4.7706,0.0,5.2246,5.012,5.0394,5.0899,0.0,4.951,4.9202,4.8548,4.8779,4.974,5.1895,5.1928,5.3659,5.9929,6.1275,6.3449,6.8931,7.4421,7.9257,8.2896,8.5206,8.6676,8.7066,8.7538,8.8125,8.8945,8.8242,8.8047,8.8672,8.7929,8.75,8.75,8.75,8.75,8.75,8.75,8.75,8.7461,8.5742,8.4883,8.4844,8.3086,8.2304,8.2304,8.2304,8.2304,8.2304,8.2304,8.2304,8.2304,8.2304,8.2304,8.2304,8.2304,8.2304,8.2304,8.2304,8.2304,8.2304,8.2304,8.2304,8.2304,8.2304,8.2304,8.2304,8.2304,8.2304,8.2304,8.2304,8.2304,8.2304,8.2304,8.2304,8.2304,8.2304,8.2304,8.2304,8.2304,8.2304,8.2304,8.2304,8.2304,8.2304,8.2304,8.2304,8.2304,8.2304,8.2304,8.2304,8.2304,8.2304,8.2304,8.2304,8.2304,8.2304,8.2304,8.2304,8.2304,8.2304,8.2304,8.2304,8.2304,8.3828,8.4687,8.4883,8.664,8.75,8.75,8.75,8.75,4.5594,4.8095,5.0361,4.8971,4.9322,4.9976,4.9851,4.8702,4.7629,4.7543,4.824,4.9356,5.1125,5.24,5.4906,6.0144,6.246,6.5825,7.2295,7.8316,8.2715,8.4509,8.6363,8.75,8.75,8.75,8.7695,8.8125,8.7734,8.7695,8.8125,8.7734,8.75,8.75,8.75,8.75,8.75,8.75,8.75,8.7461,8.5742,8.4883,8.4844,8.3086,8.2304,8.2304,8.2304,8.2304,8.2304,8.2304,8.2304,8.2304,8.2304,8.2304,8.2304,8.2304,8.2304,8.2304,8.2304,8.2304,8.2304,8.2304,8.2304,8.2304,8.2304,8.2304,8.2304,8.2304,8.2304,8.2304,8.2304,8.2304,8.2304,8.2304,8.2304,8.2304,8.2304,8.2304,8.2304,8.2304,8.2304,8.2304,8.2304,8.2304,8.2304,8.2304,8.2304,8.2304,8.2304,8.2304,8.2304,8.2304,8.2304,8.2304,8.2304,8.2304,8.2304,8.2304,8.2304,8.2304,8.2304,8.2304,8.2304,8.2304,8.4023,8.4883,8.4883,8.664,8.75,8.75,8.75,8.75,4.6052,4.8668,5.1092,5.0322,5.0399,5.0822,5.1236,4.8548,4.6206,4.6928,4.7851,4.8908,5.0186,5.318,5.6392,5.9276,6.3075,6.8195,7.5373,8.0538,8.3984,8.4961,8.6523,8.75,8.75,8.75,8.75,8.75,8.75,8.75,8.75,8.75,8.75,8.75,8.75,8.7422,8.7304,8.7422,8.7422,8.7265,8.5664,8.4844,8.4648,8.3047,8.2304,8.2304,8.2304,8.2304,8.2304,8.2304,8.2304,8.2304,8.2304,8.2304,8.2304,8.2304,8.2304,8.2304,8.2304,8.2304,8.2304,8.2304,8.2304,8.2304,8.2304,8.2304,8.2304,8.2304,8.2304,8.2304,8.2304,8.2304,8.2304,8.2304,8.2304,8.2304,8.2304,8.2304,8.2304,8.2304,8.2304,8.2304,8.2304,8.2304,8.2304,8.2304,8.2304,8.2304,8.2304,8.2304,8.2304,8.2304,8.2304,8.2304,8.2304,8.2304,8.2304,8.2304,8.2304,8.2304,8.2304,8.2304,8.2304,8.2304,8.4023,8.4883,8.4883,8.664,8.75,8.75,8.75,8.7578,4.8245,5.1318,5.2895,4.8548,4.9086,5.0361,4.9009,4.8197,4.774,4.7889,4.9202,5.125,5.4404,5.7207,6.0627,6.5468,7.0484,7.5251,7.9434,8.2099,8.4219,8.582,8.6875,8.75,8.75,8.75,8.75,8.75,8.75,8.75,8.75,8.75,8.75,8.75,8.75,8.7148,8.6406,8.7148,8.7148,8.6406,8.539,8.4492,8.3789,8.2773,8.2304,8.2304,8.2304,8.2304,8.2304,8.2304,8.2304,8.2304,8.2304,8.2304,8.2304,8.2304,8.2304,8.2304,8.2304,8.2304,8.2304,8.2304,8.2304,8.2304,8.2304,8.2304,8.2304,8.2304,8.2304,8.2304,8.2304,8.2304,8.2304,8.2304,8.2304,8.2304,8.2304,8.2304,8.2304,8.2304,8.2304,8.2304,8.2304,8.2304,8.2304,8.2304,8.2304,8.2304,8.2304,8.2304,8.2304,8.2304,8.2304,8.2304,8.2304,8.2304,8.2304,8.2304,8.2304,8.2304,8.2304,8.2304,8.2304,8.2304,8.4023,8.4883,8.4883,8.664,8.75,8.75,8.75,8.7851,4.7014,4.9822,5.19,4.9548,5.1895,5.4587,5.3774,5.2549,5.1548,5.1548,5.2549,5.4073,5.6276,5.9611,6.4246,7.1033,7.5262,7.863,8.1235,8.3162,8.4765,8.6054,8.6953,8.75,8.75,8.75,8.75,8.75,8.75,8.75,8.75,8.7031,8.6797,8.6797,8.6328,8.5898,8.5508,8.5898,8.5898,8.5508,8.4609,8.3984,8.3554,8.2695,8.2304,8.2304,8.2304,8.2304,8.2304,8.2304,8.2304,8.2304,8.2304,8.2304,8.2304,8.2304,8.2304,8.2304,8.2304,8.2304,8.2304,8.2304,8.2304,8.2304,8.2304,8.2304,8.2304,8.2304,8.2304,8.2304,8.2304,8.2304,8.2304,8.2304,8.2304,8.2304,8.2304,8.2304,8.2304,8.2304,8.2304,8.2304,8.2304,8.2304,8.2304,8.2304,8.2304,8.2304,8.2304,8.2304,8.2304,8.2304,8.2304,8.2304,8.2304,8.2304,8.2304,8.2304,8.2304,8.2304,8.2304,8.2304,8.2304,8.2304,8.4023,8.4883,8.4883,8.664,8.75,8.75,8.75,8.7929,4.6321,4.8706,5.1092,5.1476,5.4357,5.7379,5.8428,5.6834,5.5437,5.6477,5.7182,5.7877,5.8729,6.2829,6.8375,7.5389,7.8543,8.0722,8.2382,8.375,8.5,8.6054,8.6601,8.6953,8.7187,8.6992,8.6875,8.6875,8.707,8.7109,8.6914,8.6445,8.6094,8.5898,8.5234,8.4804,8.4609,8.4609,8.4609,8.4609,8.3906,8.3476,8.3281,8.2617,8.2304,8.2304,8.2304,8.2304,8.2304,8.2304,8.2304,8.2304,8.2304,8.2304,8.2304,8.2304,8.2304,8.2304,8.2304,8.2304,8.2304,8.2304,8.2304,8.2304,8.2304,8.2304,8.2304,8.2304,8.2304,8.2304,8.2304,8.2304,8.2304,8.2304,8.2304,8.2304,8.2304,8.2304,8.2304,8.2304,8.2304,8.2304,8.2304,8.2304,8.2304,8.2304,8.2304,8.2304,8.2304,8.2304,8.2304,8.2304,8.2304,8.2304,8.2304,8.2304,8.2304,8.2304,8.2304,8.2304,8.2304,8.2304,8.2304,8.2304,8.4023,8.4883,8.4883,8.664,8.75,8.75,8.75,8.8047,4.8476,5.0433,5.2197,5.3818,5.3895,5.4641,5.8759,5.8359,5.827,6.2366,6.3281,6.3353,6.3567,6.8541,7.3866,7.7695,8.0429,8.2421,8.3359,8.3594,8.4336,8.6015,8.5547,8.539,8.6211,8.5547,8.5078,8.5078,8.5859,8.5937,8.5117,8.5781,8.582,8.5039,8.4922,8.4492,8.3711,8.3672,8.3672,8.3672,8.3633,8.3164,8.2383,8.2344,8.2304,8.2304,8.2304,8.2304,8.2304,8.2304,8.2304,8.2304,8.2304,8.2304,8.2304,8.2304,8.2304,8.2304,8.2304,8.2304,8.2304,8.2304,8.2304,8.2304,8.2304,8.2304,8.2304,8.2304,8.2304,8.2304,8.2304,8.2304,8.2304,8.2304,8.2304,8.2304,8.2304,8.2304,8.2304,8.2304,8.2304,8.2304,8.2304,8.2304,8.2304,8.2304,8.2304,8.2304,8.2304,8.2304,8.2304,8.2304,8.2304,8.2304,8.2304,8.2304,8.2304,8.2304,8.2304,8.2304,8.2304,8.2304,8.2304,8.2304,8.4023,8.4883,8.4883,8.664,8.75,8.75,8.75,8.8359,4.6783,4.9894,5.3035,5.3566,5.5514,5.8157,6.1401,6.29,6.4559,6.7939,6.9062,6.9489,6.9668,7.2569,7.5703,7.8125,8.0625,8.2617,8.3476,8.3594,8.4062,8.5234,8.5117,8.5039,8.5351,8.5078,8.4883,8.4883,8.5195,8.5234,8.4922,8.4687,8.4414,8.4101,8.3554,8.3125,8.2773,8.2773,8.2773,8.2773,8.2773,8.2617,8.2304,8.2304,8.2304,8.2304,8.2304,8.2304,8.2304,8.2304,8.2304,8.2304,8.2304,8.2304,8.2304,8.2304,8.2304,8.2304,8.2304,8.2304,8.2304,8.2304,8.2304,8.2304,8.2304,8.2304,8.2304,8.2304,8.2304,8.2304,8.2304,8.2304,8.2304,8.2304,8.2304,8.2304,8.2304,8.2304,8.2304,8.2304,8.2304,8.2304,8.2304,8.2304,8.2304,8.2304,8.2304,8.2304,8.2304,8.2304,8.2304,8.2304,8.2304,8.2304,8.2304,8.2304,8.2304,8.2304,8.2304,8.2304,8.2304,8.2304,8.2304,8.2304,8.4023,8.4883,8.4883,8.664,8.75,8.75,8.75,8.8398,4.6846,5.0125,5.3693,5.4381,5.7443,6.1257,6.4947,6.6892,6.9017,7.292,7.3534,7.3593,7.4267,7.523,7.6562,7.8555,8.0781,8.25,8.3125,8.3203,8.3515,8.4375,8.4258,8.4179,8.4453,8.4258,8.4062,8.4062,8.4336,8.4375,8.4101,8.3789,8.3476,8.3203,8.2617,8.2304,8.2304,8.2304,8.2304,8.2304,8.2304,8.2304,8.2304,8.2304,8.2304,8.2304,8.2304,8.2304,8.2304,8.2304,8.2304,8.2304,8.2304,8.2304,8.2304,8.2304,8.2304,8.2304,8.2304,8.2304,8.2304,8.2304,8.2304,8.2304,8.2304,8.2304,8.2304,8.2304,8.2304,8.2304,8.2304,8.2304,8.2304,8.2304,8.2304,8.2304,8.2304,8.2304,8.2304,8.2304,8.2304,8.2304,8.2304,8.2304,8.2304,8.2304,8.2304,8.2304,8.2304,8.2304,8.2304,8.2304,8.2304,8.2304,8.2304,8.2304,8.2304,8.2304,8.2304,8.2304,8.2304,8.2304,8.2304,8.2304,8.375,8.4609,8.4883,8.6367,8.7226,8.75,8.75,8.8242,4.9595,5.1542,5.4251,5.6835,5.9436,6.2971,6.9131,6.9785,7.0858,7.7223,7.6445,7.5195,7.6914,7.6523,7.6758,7.9297,8.1172,8.2304,8.2304,8.2304,8.2617,8.3476,8.2812,8.2656,8.3515,8.2812,8.2304,8.2304,8.3086,8.3203,8.2344,8.3125,8.3203,8.2344,8.2304,8.2304,8.2304,8.2304,8.2304,8.2304,8.2304,8.2304,8.2304,8.2304,8.2304,8.2304,8.2304,8.2304,8.2304,8.2304,8.2304,8.2304,8.2304,8.2304,8.2304,8.2304,8.2304,8.2304,8.2304,8.2304,8.2304,8.2304,8.2304,8.2304,8.2304,8.2304,8.2304,8.2304,8.2304,8.2304,8.2304,8.2304,8.2304,8.2304,8.2304,8.2304,8.2304,8.2304,8.2304,8.2304,8.2304,8.2304,8.2304,8.2304,8.2304,8.2304,8.2304,8.2304,8.2304,8.2304,8.2304,8.2304,8.2304,8.2304,8.2304,8.2304,8.2304,8.2304,8.2304,8.2304,8.2304,8.2304,8.2304,8.2304,8.3164,8.4023,8.4883,8.5781,8.664,8.75,8.75,8.7929,4.8026,5.1464,5.5726,5.7055,6.2159,6.7809,7.1473,7.3025,7.5067,8.0116,7.957,7.8359,7.8867,7.875,7.8828,7.957,8.1172,8.2304,8.2304,8.2304,8.2383,8.2656,8.2461,8.2383,8.2656,8.2461,8.2304,8.2304,8.2539,8.2578,8.2304,8.2539,8.2578,8.2304,8.2304,8.2304,8.2304,8.2304,8.2304,8.2304,8.2304,8.2304,8.2304,8.2304,8.2304,8.2304,8.2304,8.2304,8.2304,8.2304,8.2304,8.2304,8.2304,8.2304,8.2304,8.2304,8.2304,8.2304,8.2304,8.2304,8.2304,8.2304,8.2304,8.2304,8.2304,8.2304,8.2304,8.2304,8.2304,8.2304,8.2304,8.2304,8.2304,8.2304,8.2304,8.2304,8.2304,8.2304,8.2304,8.2304,8.2304,8.2304,8.2304,8.2304,8.2304,8.2304,8.2304,8.2304,8.2304,8.2304,8.2304,8.2304,8.2304,8.2304,8.2304,8.2304,8.2304,8.2304,8.2304,8.2304,8.2304,8.2304,8.2304,8.2304,8.375,8.4648,8.4883,8.6406,8.7265,8.75,8.75,8.7929,5.0979,5.4727,5.8922,6.1088,6.5754,7.0838,7.4826,7.6779,7.8621,8.1679,8.0898,7.9922,8.0625,8.0156,7.9922,8.0625,8.1601,8.2304,8.2304,8.2304,8.2304,8.2304,8.2304,8.2304,8.2304,8.2304,8.2304,8.2304,8.2304,8.2304,8.2304,8.2304,8.2304,8.2304,8.2304,8.2304,8.2304,8.2304,8.2304,8.2304,8.2304,8.2304,8.2304,8.2304,8.2304,8.2304,8.2304,8.2304,8.2304,8.2304,8.2304,8.2304,8.2304,8.2304,8.2304,8.2304,8.2304,8.2304,8.2304,8.2304,8.2304,8.2304,8.2304,8.2304,8.2304,8.2304,8.2304,8.2304,8.2304,8.2304,8.2304,8.2304,8.2304,8.2304,8.2304,8.2304,8.2304,8.2304,8.2304,8.2304,8.2304,8.2304,8.2304,8.2304,8.2304,8.2304,8.2304,8.2304,8.2304,8.2304,8.2304,8.2304,8.2304,8.2304,8.2304,8.2304,8.2304,8.2304,8.2304,8.2304,8.2304,8.2304,8.2304,8.2304,8.332,8.4219,8.4883,8.5937,8.6836,8.75,8.75,8.7773,5.6068,5.9282,6.2539,6.6953,6.9687,7.2734,7.832,8.0273,8.1133,8.2109,8.1054,8.0429,8.1992,8.1015,8.0469,8.2031,8.2304,8.2304,8.2304,8.2304,8.2304,8.2304,8.2304,8.2304,8.2304,8.2304,8.2304,8.2304,8.2304,8.2304,8.2304,8.2304,8.2304,8.2304,8.2304,8.2304,8.2304,8.2304,8.2304,8.2304,8.2226,8.2226,8.2304,8.2304,8.2304,8.2304,8.2304,8.2304,8.2304,8.2304,8.2304,8.2304,8.2304,8.2304,8.2304,8.2304,8.2304,8.2304,8.2304,8.2304,8.2304,8.2304,8.2304,8.2304,8.2304,8.2304,8.2304,8.2304,8.2304,8.2304,8.2304,8.2304,8.2304,8.2304,8.2304,8.2304,8.2304,8.2304,8.2304,8.2304,8.2304,8.2304,8.2304,8.2304,8.2304,8.2304,8.2304,8.2304,8.2304,8.2304,8.2304,8.2304,8.2304,8.2304,8.2304,8.2304,8.2304,8.2304,8.2304,8.2304,8.2304,8.2304,8.2304,8.2304,8.2383,8.3203,8.4765,8.4922,8.582,8.7383,8.7461,8.75,5.2921,5.6414,6.0799,6.5799,7.144,7.6328,7.832,7.9375,8.0429,8.1992,8.1992,8.1875,8.2226,8.1992,8.1875,8.2226,8.2304,8.2304,8.2304,8.2304,8.2304,8.2304,8.2304,8.2304,8.2304,8.2304,8.2304,8.2304,8.2304,8.2304,8.2304,8.2304,8.2304,8.2304,8.2304,8.2304,8.2304,8.2304,8.2304,8.2304,8.1601,8.164,8.2304,8.2304,8.2304,8.2304,8.2304,8.2304,8.2304,8.2304,8.2304,8.2304,8.2304,8.2304,8.2304,8.2304,8.2304,8.2304,8.2304,8.2304,8.2304,8.2304,8.2304,8.2304,8.2304,8.2304,8.2304,8.2304,8.2304,8.2304,8.2304,8.2304,8.2304,8.2304,8.2304,8.2304,8.2304,8.2304,8.2304,8.2304,8.2304,8.2304,8.2304,8.2304,8.2304,8.2304,8.2304,8.2304,8.2304,8.2304,8.2304,8.2304,8.2304,8.2304,8.2304,8.2304,8.2304,8.2304,8.2304,8.2304,8.2304,8.2304,8.2304,8.2304,8.2969,8.3515,8.3867,8.5234,8.6094,8.6484,8.7187,8.75,5.3863,5.7536,6.1827,6.8272,7.324,7.6914,7.8203,7.8828,7.9492,8.0781,8.1406,8.1679,8.1679,8.2031,8.2304,8.2304,8.1953,8.1679,8.1679,8.1679,8.1523,8.1094,8.1406,8.1679,8.1679,8.1679,8.1679,8.1679,8.1679,8.1484,8.1094,8.1445,8.1679,8.1679,8.1679,8.1679,8.1679,8.125,8.1054,8.1054,8.0586,8.0625,8.1054,8.1484,8.1679,8.164,8.125,8.1054,8.1054,8.1054,8.1054,8.1054,8.1054,8.1328,8.1679,8.1679,8.1953,8.2226,8.1836,8.1953,8.2226,8.1797,8.1953,8.2304,8.2304,8.2304,8.2304,8.2304,8.2304,8.2304,8.2304,8.2304,8.2304,8.2304,8.2304,8.2304,8.2304,8.2304,8.2304,8.2304,8.2304,8.2304,8.2304,8.2304,8.2304,8.2304,8.2304,8.2304,8.2304,8.2304,8.2304,8.2304,8.2304,8.2304,8.2304,8.2304,8.2304,8.2304,8.2304,8.2304,8.2304,8.2304,8.2304,8.2304,8.2734,8.3164,8.3594,8.4922,8.5781,8.6211,8.7109,8.75,5.4641,5.9062,6.3672,7.1015,7.414,7.5859,7.7461,7.7812,7.8047,7.8867,7.9961,8.0781,8.0781,8.1367,8.1836,8.1836,8.125,8.0781,8.0781,8.0781,8.0508,7.9805,8.0351,8.0781,8.0781,8.0781,8.0781,8.0781,8.0781,8.0469,7.9726,8.039,8.0781,8.0781,8.0781,8.0781,8.0781,8.0078,7.9687,7.9687,7.9687,7.9648,7.9531,8.0234,8.0625,8.0742,8.0,7.9687,7.9687,7.9687,7.9687,7.9687,7.9687,8.0156,8.0781,8.0937,8.1367,8.1758,8.1211,8.1367,8.1719,8.1015,8.1367,8.207,8.207,8.207,8.2109,8.2265,8.2187,8.2109,8.2265,8.2304,8.2304,8.2304,8.2304,8.2304,8.2304,8.2304,8.2304,8.2304,8.2304,8.2304,8.2304,8.2304,8.2304,8.2304,8.2304,8.2304,8.2304,8.2304,8.2304,8.2304,8.2304,8.2304,8.2304,8.2304,8.2304,8.2304,8.2304,8.2304,8.2304,8.2304,8.2304,8.2304,8.2304,8.2656,8.3398,8.4258,8.5117,8.6015,8.6875,8.7344,4.9264,5.6243,6.414,6.9687,7.2344,7.3906,7.4883,7.5117,7.5351,7.6211,7.8242,7.9883,7.9883,7.9961,8.0039,8.0039,7.9961,7.9883,7.9883,7.9883,7.9844,7.9726,7.9805,7.9883,7.9883,7.9883,7.9883,7.9883,7.9883,7.9805,7.9726,7.9805,7.9883,7.9883,7.9883,7.9883,7.9883,7.9765,7.9687,7.9687,7.9687,7.9336,7.8672,7.8789,7.9219,7.9883,7.9765,7.9687,7.9687,7.9687,7.9687,7.9687,7.9687,7.9765,7.9961,8.0703,8.0586,8.0156,8.0781,8.0586,8.0039,7.9922,8.0469,8.1172,8.1172,8.1172,8.1328,8.2109,8.1758,8.1367,8.2109,8.2304,8.2304,8.2304,8.2304,8.2304,8.2304,8.2304,8.2304,8.2304,8.2304,8.2304,8.2304,8.2304,8.2304,8.2304,8.2304,8.2304,8.2304,8.2304,8.2304,8.2304,8.2304,8.2304,8.2304,8.2304,8.2304,8.2304,8.2304,8.2304,8.2304,8.2304,8.2304,8.2304,8.2304,8.2344,8.2461,8.3359,8.4219,8.5078,8.5976,8.6797,5.0848,5.6873,6.2773,6.8008,7.0586,7.2187,7.3555,7.4258,7.4726,7.5078,7.6055,7.7305,7.875,7.9414,7.9687,7.9687,7.9336,7.9023,7.9023,7.9023,7.8867,7.8359,7.8711,7.9023,7.9023,7.9023,7.9023,7.9023,7.9023,7.8828,7.832,7.875,7.9023,7.9023,7.9023,7.9023,7.9023,7.8555,7.8281,7.8281,7.8281,7.8125,7.7773,7.7773,7.8242,7.8984,7.8515,7.8281,7.8281,7.8281,7.8281,7.8281,7.8281,7.8594,7.9062,7.9453,7.9648,7.9687,7.9609,7.9648,7.9648,7.918,7.9609,8.0273,8.0273,8.0273,8.0351,8.0742,8.0937,8.1094,8.1484,8.1914,8.2187,8.1679,8.1953,8.2187,8.1679,8.1953,8.2304,8.2304,8.2304,8.2304,8.2304,8.2304,8.2304,8.2304,8.2304,8.2304,8.2304,8.2304,8.2304,8.2304,8.2304,8.2304,8.2304,8.2304,8.2304,8.2304,8.2304,8.2304,8.2304,8.2304,8.2304,8.2304,8.2304,8.2304,8.2304,8.3164,8.3789,8.4179,8.5078,8.5664,5.1484,5.5703,5.914,6.4805,6.7656,6.9609,7.1562,7.2851,7.3672,7.3906,7.4101,7.4922,7.7109,7.8008,7.8398,7.8398,7.789,7.75,7.75,7.75,7.7265,7.6601,7.7109,7.7617,7.7812,7.7851,7.793,7.8164,7.7969,7.7578,7.6914,7.7265,7.7617,7.7812,7.7851,7.7969,7.8164,7.7539,7.7187,7.7187,7.7187,7.7187,7.7187,7.7187,7.7539,7.8125,7.7461,7.7187,7.7187,7.7187,7.7187,7.7187,7.7187,7.7617,7.8203,7.8437,7.875,7.9023,7.8633,7.875,7.8984,7.8359,7.8711,7.9414,7.9414,7.9414,7.9453,7.9648,8.0039,8.0469,8.0898,8.1328,8.1523,8.1094,8.1328,8.1562,8.1367,8.1836,8.2304,8.2304,8.2304,8.2304,8.2304,8.2304,8.2304,8.2304,8.2304,8.2304,8.2304,8.2304,8.2304,8.2304,8.2304,8.2304,8.2304,8.2304,8.2304,8.2304,8.2304,8.2304,8.2304,8.2304,8.2304,8.2304,8.2304,8.2304,8.2304,8.2969,8.3398,8.3633,8.4258,8.4687,4.7578,4.9961,5.2344,5.9101,6.2734,6.5312,6.789,6.9726,7.1133,7.1953,7.2773,7.3672,7.4648,7.4844,7.4883,7.4883,7.4844,7.4805,7.4805,7.4805,7.4805,7.4726,7.4765,7.5117,7.5976,7.6055,7.6367,7.7226,7.6484,7.6015,7.5976,7.5234,7.5195,7.6015,7.6055,7.6445,7.7265,7.7226,7.7187,7.7187,7.7187,7.7187,7.7187,7.7187,7.7226,7.7265,7.7226,7.7187,7.7187,7.7187,7.7187,7.7187,7.7187,7.7226,7.7383,7.8203,7.8008,7.7422,7.8242,7.8008,7.7305,7.7265,7.7851,7.8555,7.8555,7.8555,7.8711,7.9492,7.918,7.8984,8.0586,8.0429,8.0039,8.082,8.039,8.0273,8.1875,8.2265,8.2304,8.2304,8.2304,8.2304,8.2304,8.2304,8.2304,8.2304,8.2304,8.2304,8.2304,8.2304,8.2304,8.2304,8.2304,8.2304,8.2304,8.2304,8.2304,8.2304,8.2304,8.2304,8.2304,8.2304,8.2304,8.2304,8.2304,8.2304,8.2304,8.2344,8.2773,8.3594,8.3633,8.4101,4.6172,4.8672,5.1172,5.5273,5.9062,6.2187,6.3672,6.664,6.918,6.9492,7.0234,7.0898,7.1211,7.3086,7.4609,7.4609,7.4609,7.4609,7.4609,7.4609,7.4609,7.4609,7.4609,7.4726,7.5039,7.5078,7.5195,7.5508,7.5234,7.5078,7.5078,7.4765,7.4726,7.5078,7.5625,7.6328,7.7187,7.7187,7.7187,7.7187,7.7187,7.7187,7.7187,7.7187,7.7187,7.7187,7.7187,7.7187,7.7187,7.7187,7.7187,7.7187,7.7187,7.7187,7.7226,7.7539,7.7461,7.7226,7.7578,7.7461,7.7187,7.7187,7.7422,7.7656,7.7656,7.7656,7.7734,7.8008,7.8281,7.8633,7.9258,7.9531,7.9765,8.0078,7.9531,7.9258,8.039,8.1523,8.2304,8.2304,8.2304,8.2304,8.2304,8.2304,8.2304,8.2304,8.2304,8.2304,8.2304,8.2304,8.2304,8.2304,8.2304,8.2304,8.2304,8.2304,8.2304,8.2304,8.2304,8.2304,8.2304,8.2304,8.2304,8.2304,8.2304,8.2304,8.2304,8.2304,8.2461,8.2773,8.2773,8.2929,4.3945,4.6289,4.8906,5.2617,5.5508,5.8203,6.1406,6.414,6.6367,6.7539,6.8437,6.9101,6.9375,7.1328,7.2969,7.3242,7.3555,7.3711,7.3711,7.3711,7.3711,7.3711,7.3711,7.3828,7.414,7.414,7.4297,7.457,7.4336,7.414,7.414,7.3906,7.3984,7.457,7.5469,7.6328,7.7187,7.7187,7.7031,7.6758,7.707,7.7031,7.6758,7.707,7.7187,7.7187,7.7187,7.7187,7.7187,7.7187,7.7187,7.7187,7.7187,7.7187,7.7187,7.7187,7.7187,7.7187,7.7187,7.7187,7.7187,7.7187,7.7187,7.7187,7.7187,7.7187,7.7187,7.7187,7.7617,7.8125,7.8437,7.8906,7.9219,7.8945,7.8672,7.8633,7.918,8.0429,8.1523,8.1797,8.1875,8.1953,8.2265,8.2304,8.2304,8.2304,8.2304,8.2304,8.2304,8.2304,8.2304,8.2304,8.2304,8.2304,8.2304,8.2304,8.2304,8.2304,8.2304,8.2304,8.2304,8.2304,8.2304,8.2304,8.2304,8.2304,8.2304,8.2304,8.2304,8.2304,8.2304,8.2304,0.0,0.0,0.0,5.0976,5.1914,5.3359,6.0898,6.2031,6.25,6.5976,6.7344,6.8242,6.918,6.9336,6.9609,7.0469,7.1367,7.1953,7.1953,7.1992,7.1992,7.1992,7.1992,7.2344,7.3164,7.3242,7.3594,7.4453,7.375,7.3242,7.3242,7.2461,7.2773,7.4492,7.539,7.625,7.7109,7.7109,7.6719,7.5859,7.6719,7.668,7.5937,7.6797,7.7187,7.7187,7.7187,7.7187,7.7187,7.7187,7.7187,7.7187,7.7187,7.7187,7.7187,7.7187,7.7187,7.7187,7.7187,7.7187,7.7187,7.7187,7.7187,7.7187,7.7187,7.7187,7.7187,7.7187,7.7187,7.7383,7.8242,7.8476,7.8242,7.7383,7.7851,7.8476,7.8476,7.9062,7.9883,8.0781,8.0976,8.1289,8.2109,8.2265,8.2304,8.2304,8.2304,8.2304,8.2304,8.2304,8.2304,8.2304,8.2304,8.2304,8.2304,8.2304,8.2304,8.2304,8.2304,8.2304,8.2304,8.2304,8.2304,8.2304,8.2304,8.2304,8.2304,8.2304,8.2304,8.2304,8.2304,8.2304,4.1211,0.0,0.0,0.0,0.0,0.0,5.3242,5.5469,5.789,6.0742,6.1992,6.3203,6.5351,6.6758,6.7656,6.789,6.9687,7.1055,7.1055,7.1601,7.1992,7.1992,7.1992,7.2109,7.2344,7.2344,7.2461,7.2695,7.25,7.2344,7.2344,7.2148,7.25,7.3633,7.3906,7.4453,7.5312,7.5312,7.5195,7.4961,7.5195,7.5508,7.5898,7.6133,7.6601,7.7187,7.7187,7.7187,7.7187,7.7187,7.7187,7.7187,7.7187,7.7187,7.7187,7.7187,7.7187,7.7187,7.7187,7.7187,7.7187,7.7187,7.7187,7.7187,7.7187,7.7187,7.7187,7.7187,7.7187,7.7265,7.75,7.7578,7.75,7.7265,7.7383,7.7578,7.7578,7.7734,7.832,7.9765,8.0586,8.1094,8.1328,8.1875,8.2304,8.2304,8.2304,8.2304,8.2304,8.2304,8.2304,8.2304,8.2304,8.2304,8.2304,8.2304,8.2304,8.2304,8.2304,8.2304,8.2304,8.2304,8.2304,8.2304,8.2304,8.2304,8.2304,8.2304,8.2304,8.2304,8.2304,8.2304,4.2461,4.3945,4.5859,4.6289,0.0,0.0,5.1758,5.3047,5.4726,5.8437,5.957,6.0703,6.3281,6.4609,6.539,6.5742,6.7656,6.9375,7.0117,7.0625,7.0937,7.0937,7.0937,7.1055,7.1406,7.1445,7.1601,7.1953,7.1992,7.1992,7.1992,7.1992,7.2383,7.3281,7.3281,7.3711,7.4609,7.4609,7.4414,7.4062,7.4414,7.4687,7.4844,7.5195,7.5625,7.6133,7.6484,7.664,7.668,7.7031,7.7187,7.7187,7.7187,7.7187,7.7187,7.7187,7.7187,7.7187,7.7187,7.7187,7.7187,7.7187,7.7187,7.7187,7.7187,7.7187,7.7187,7.7187,7.7187,7.7187,7.7187,7.7187,7.7187,7.7187,7.7187,7.7187,7.7187,7.7187,7.7617,7.8945,7.9609,8.0078,8.039,8.1172,8.1758,8.1758,8.207,8.2304,8.2304,8.2304,8.2304,8.2304,8.2304,8.2304,8.2304,8.2304,8.2304,8.2304,8.2304,8.2304,8.2304,8.2304,8.2304,8.2304,8.2304,8.2304,8.2304,8.2304,8.2304,8.2304,8.2304,8.2304,4.4531,4.5039,4.6523,4.9219,4.8516,0.0,5.3203,5.2734,5.2578,5.7226,5.8203,5.8984,6.1523,6.2148,6.2539,6.332,6.5078,6.6992,6.8945,6.9336,6.9414,6.9492,6.9453,6.9687,7.0469,7.0547,7.0898,7.164,7.1797,7.1875,7.1875,7.1953,7.2344,7.3125,7.3164,7.3515,7.4297,7.4297,7.3906,7.3164,7.3945,7.3945,7.332,7.4101,7.4492,7.4648,7.543,7.5742,7.582,7.6601,7.7031,7.7187,7.7187,7.7187,7.7187,7.7187,7.7187,7.7187,7.7187,7.7187,7.7187,7.7187,7.7187,7.7187,7.7187,7.7187,7.7187,7.7187,7.7187,7.7187,7.7187,7.7187,7.7187,7.7187,7.7187,7.7187,7.7187,7.7187,7.7422,7.8203,7.8437,7.8711,7.9453,8.0351,8.1015,8.1015,8.1758,8.2304,8.2304,8.2304,8.2304,8.2304,8.2304,8.2304,8.2304,8.2304,8.2304,8.2304,8.2304,8.2304,8.2304,8.2304,8.2304,8.2304,8.2304,8.2304,8.2304,8.2304,8.2304,8.2304,8.2304,8.2304,4.8281,4.9492,5.0703,4.8633,5.0312,0.0,4.8711,4.9297,5.0703,5.1758,5.1953,5.2734,5.5273,5.6914,5.789,5.8086,6.0703,6.3828,6.6953,6.8555,6.9414,6.9414,6.9414,6.9453,6.9648,6.9648,6.9765,6.9961,7.0586,7.0937,7.0937,7.1601,7.207,7.2265,7.2265,7.2344,7.25,7.25,7.2422,7.2265,7.2422,7.2773,7.332,7.3476,7.3945,7.4609,7.4765,7.4844,7.4883,7.5039,7.5937,7.7187,7.7187,7.7187,7.7187,7.7187,7.7187,7.7187,7.7187,7.7187,7.7187,7.7187,7.7187,7.7187,7.7187,7.7187,7.7187,7.7187,7.7187,7.7187,7.7187,7.7187,7.7187,7.7187,7.7187,7.7187,7.7187,7.7187,7.7265,7.7422,7.8008,7.8555,7.8711,8.0,8.1015,8.1015,8.1758,8.2304,8.2304,8.2304,8.2304,8.2304,8.2304,8.2304,8.2304,8.2304,8.2304,8.2304,8.2304,8.2304,8.2304,8.2304,8.2304,8.2304,8.2304,8.2304,8.2304,8.2304,8.2304,8.2304,8.2304,8.2304,5.1367,5.1719,5.2383,5.1094,5.1758,0.0,0.0,4.9531,5.0156,5.2305,5.1406,5.125,5.4687,5.5312,5.5586,5.6445,5.9101,6.1523,6.2851,6.5234,6.6875,6.6875,6.6875,6.7187,6.8086,6.8164,6.8515,6.9375,6.9805,7.0234,7.0664,7.1094,7.1562,7.1992,7.1992,7.1992,7.1992,7.1992,7.1992,7.1992,7.1992,7.2226,7.2656,7.2656,7.289,7.332,7.375,7.3945,7.3984,7.4414,7.5117,7.5898,7.5898,7.5898,7.5976,7.6406,7.6562,7.6601,7.7031,7.7187,7.7187,7.7187,7.7187,7.7109,7.668,7.6562,7.664,7.707,7.7187,7.7187,7.7187,7.7187,7.7187,7.7187,7.7187,7.7187,7.7187,7.7187,7.7187,7.7187,7.7539,7.7851,7.7851,7.9258,8.0351,8.0351,8.1445,8.2304,8.2304,8.2304,8.2304,8.2304,8.2304,8.2304,8.2304,8.2304,8.2304,8.2304,8.2304,8.2304,8.2304,8.2304,8.2304,8.2304,8.2304,8.2304,8.2304,8.2304,8.2304,8.2304,8.2304,8.2304,5.4609,5.418,5.4336,5.3867,5.3437,5.2891,0.0,0.0,0.0,5.3437,5.1875,5.1016,5.4492,5.3984,5.3476,5.4883,5.7265,5.8633,5.7812,6.0508,6.2812,6.3476,6.3984,6.4805,6.6015,6.5859,6.6406,6.8281,6.8242,6.8672,6.9883,7.0273,7.0859,7.1719,7.1758,7.1836,7.1992,7.1992,7.1992,7.1992,7.1992,7.1992,7.1992,7.1992,7.1992,7.2031,7.2734,7.3047,7.3086,7.3828,7.4101,7.414,7.4453,7.4609,7.4687,7.539,7.5664,7.5781,7.664,7.6953,7.6992,7.7148,7.7109,7.6836,7.6094,7.5898,7.6094,7.6953,7.7187,7.7187,7.7187,7.7187,7.7187,7.7187,7.7187,7.7187,7.7187,7.7187,7.7187,7.7187,7.7187,7.7187,7.7187,7.8594,7.9687,7.9687,8.1172,8.2304,8.2304,8.2304,8.2304,8.2304,8.2304,8.2304,8.2304,8.2304,8.2304,8.2304,8.2304,8.2304,8.2304,8.2304,8.2304,8.2304,8.2304,8.2304,8.2304,8.2304,8.2304,8.2304,8.2304,8.2304,5.8945,5.9531,5.9414,5.4141,5.6133,5.7422,4.9883,0.0,5.1758,5.0,0.0,4.9219,4.9687,0.0,0.0,4.9726,5.1914,5.3281,5.2422,5.4609,5.7461,6.0469,6.289,6.4062,6.3515,6.2031,6.2187,6.4687,6.414,6.4765,6.7187,6.8789,7.0,7.082,7.0859,7.1211,7.1992,7.1992,7.1992,7.1992,7.1992,7.1992,7.1992,7.1992,7.1992,7.1992,7.2109,7.2148,7.2148,7.2265,7.2305,7.2461,7.3984,7.4609,7.4609,7.4726,7.4765,7.4883,7.5742,7.6055,7.6172,7.6953,7.668,7.6015,7.5937,7.5898,7.6094,7.6953,7.7187,7.7187,7.7187,7.7187,7.7187,7.7187,7.7187,7.7187,7.7187,7.7187,7.7187,7.7187,7.7187,7.7187,7.7187,7.8594,7.9687,7.9687,8.1172,8.2304,8.2304,8.2304,8.2304,8.2304,8.2304,8.2304,8.2304,8.2304,8.2304,8.2304,8.2304,8.2304,8.2304,8.2304,8.2304,8.2304,8.2304,8.2304,8.2304,8.2304,8.2304,8.2304,8.2304,8.2304,5.9648,6.0039,5.9961,5.5976,5.6211,5.6094,5.0976,5.0156,5.0625,5.1016,0.0,0.0,0.0,0.0,0.0,0.0,5.0937,5.1641,5.082,5.293,5.5078,5.6523,5.7656,5.8984,6.0625,6.0547,6.1484,6.4101,6.2578,6.3086,6.6719,6.7578,6.8828,7.0625,7.0703,7.1133,7.1992,7.1992,7.1992,7.1992,7.1992,7.1992,7.1992,7.1992,7.1992,7.1992,7.1992,7.1992,7.1992,7.1992,7.1992,7.207,7.2812,7.3086,7.3164,7.3672,7.3867,7.3984,7.4844,7.5156,7.5195,7.5586,7.5117,7.4492,7.5,7.5156,7.5312,7.6211,7.6797,7.7187,7.7187,7.7187,7.7187,7.7187,7.7187,7.7187,7.7187,7.7187,7.7187,7.7187,7.7187,7.7187,7.7187,7.8203,7.8984,7.8984,8.0039,8.0781,8.0781,8.0781,8.0976,8.1484,8.1094,8.1015,8.1484,8.1094,8.1015,8.1523,8.2031,8.2304,8.2304,8.2304,8.2304,8.2304,8.2304,8.2304,8.2304,8.2304,8.2304,8.2304,8.2304,8.2304,6.039,6.0664,6.0586,5.6836,5.5781,5.4726,5.1172,5.0156,5.0391,5.1992,5.1445,0.0,0.0,0.0,5.0,5.0156,0.0,5.0625,4.9297,5.0937,5.2422,5.2891,5.3359,5.4726,5.75,5.7656,5.8867,6.1953,6.0,6.0625,6.5234,6.5937,6.7265,6.957,6.9883,7.043,7.1289,7.1523,7.164,7.164,7.1875,7.1992,7.1992,7.1992,7.1992,7.1992,7.1992,7.1992,7.1992,7.1992,7.1992,7.1992,7.1992,7.1992,7.207,7.2695,7.293,7.3086,7.3945,7.4414,7.457,7.4336,7.3828,7.3437,7.4062,7.4414,7.4765,7.5664,7.6523,7.7187,7.7187,7.7187,7.7187,7.7187,7.7187,7.7187,7.7187,7.7187,7.7187,7.7187,7.7187,7.7187,7.7187,7.793,7.8515,7.8515,7.918,7.9687,7.9687,7.9687,7.9922,8.0586,8.0078,7.9961,8.0586,8.0078,8.0078,8.0937,8.1601,8.2031,8.2304,8.2304,8.2304,8.2304,8.2304,8.2304,8.2304,8.2304,8.2304,8.2304,8.2304,8.2304,6.2305,6.2851,6.2539,5.5781,5.5312,5.5,4.9062,5.0234,5.2344,5.1601,5.3398,5.4844,5.4101,5.3203,5.207,5.0469,5.0234,0.0,0.0,4.7226,4.8437,5.0117,5.1758,5.3125,5.4062,5.1953,5.2266,5.6523,5.5195,5.6445,6.1601,6.3476,6.5195,6.6953,6.7851,6.8672,6.9492,7.0312,7.0742,7.0742,7.1601,7.1992,7.1992,7.1992,7.1992,7.1992,7.1992,7.1992,7.1992,7.1992,7.1992,7.1992,7.1992,7.1992,7.1992,7.2031,7.2031,7.2187,7.3047,7.3906,7.4453,7.3633,7.332,7.332,7.332,7.3945,7.4765,7.5664,7.6523,7.7187,7.7187,7.7187,7.7187,7.7187,7.7187,7.7187,7.7187,7.7187,7.7187,7.7187,7.7187,7.7187,7.7187,7.793,7.8515,7.8515,7.918,7.9687,7.9687,7.9687,7.9726,7.9726,7.9726,7.9726,7.9726,7.9726,8.0078,8.0937,8.1015,8.1406,8.2265,8.2304,8.2304,8.2304,8.2304,8.2304,8.2304,8.2304,8.2304,8.2304,8.2304,8.2304,6.3672,6.4258,6.3906,5.8711,5.7031,5.5312,5.043,5.0625,5.1445,5.0039,5.2695,5.4844,5.3398,5.2891,5.2148,5.0469,4.9726,4.8633,0.0,4.6562,4.6953,4.7539,4.9648,5.1172,5.1445,5.1172,5.2539,5.6328,5.5508,5.6875,6.1445,6.2812,6.4492,6.6836,6.7187,6.8008,6.9453,6.9726,6.9844,6.9844,7.0703,7.1133,7.1172,7.1758,7.1992,7.1992,7.1992,7.1992,7.1992,7.1992,7.1992,7.1992,7.1992,7.1992,7.1992,7.1992,7.1992,7.2031,7.2344,7.2617,7.2812,7.2539,7.2422,7.2422,7.2422,7.3047,7.3906,7.4805,7.5664,7.6484,7.7031,7.7187,7.7187,7.7187,7.7187,7.7187,7.7187,7.7187,7.7187,7.7187,7.7187,7.7187,7.7187,7.7422,7.7656,7.7656,7.7851,7.8047,7.8047,7.8047,7.8281,7.8828,7.8398,7.8281,7.8867,7.8906,7.9023,7.9336,8.039,8.1133,8.1445,8.1992,8.2304,8.2304,8.2304,8.2304,8.2304,8.2304,8.2304,8.2304,8.2304,8.2304,6.4453,6.4922,6.4648,6.0625,5.8789,5.6758,5.2148,5.2226,5.2773,5.1055,5.3164,5.5234,5.5039,5.375,5.2344,5.125,4.9844,4.8281,0.0,4.6289,4.6289,4.6289,4.7773,4.8945,4.9258,4.9453,5.1016,5.4492,5.4219,5.5781,6.0117,6.1445,6.3281,6.5898,6.6289,6.7148,6.8555,6.8828,6.8984,6.8984,6.9844,7.039,7.0703,7.1289,7.1719,7.1992,7.1992,7.1992,7.1992,7.1992,7.1992,7.1992,7.1992,7.1992,7.1992,7.1992,7.1992,7.1992,7.1992,7.1992,7.1992,7.1992,7.1992,7.1992,7.1992,7.2617,7.3476,7.4336,7.5234,7.6094,7.6953,7.7187,7.7187,7.7187,7.7187,7.7187,7.7187,7.7187,7.7187,7.7187,7.7187,7.7187,7.7187,7.7187,7.7187,7.7187,7.7187,7.7187,7.7187,7.7187,7.7422,7.7969,7.7539,7.7422,7.8008,7.8047,7.8164,7.8476,7.9492,8.039,8.0976,8.1523,8.1992,8.2304,8.2304,8.2304,8.2304,8.2304,8.2304,8.2304,8.2221,8.2222]}]]